M I D A S
Marine Information and Data Acquisition System
Tripno 523 of the Zeeleeuw from 2003-06-24 06:22:32 to 2003-06-24 11:27:24
Back to CruiseResearch ActivitiesStationsMapUnderway DataData graphs

EquipmentUnitsComment
TimeDGPSUTC
LatitudeDGPSDM.mWGS84
LongitudeDGPSDM.mWGS84
TemperatureSBE03/SBE38deg celciusITS90
ConductivitySBE21S/mITS90
SalinitySBE21 Practical Salinity Units
ChlorophylAChelsea fluorimeterg/lCalibrated in Aceton
Missing or incorrect values are displayed as -999
Sea surface data collected by the RV Zeeleeuw from 2003-06-24 06:22:32 to 2003-06-24 11:27:24
                                                                                    Next 1000 lines
Time Latitude Longitude Temperature Conductivity Salinity ChlorophylA
2003-06-24 06:22:40 51°13.59 2°56.13 -999 5.077295 34.270846 -0.781249
2003-06-24 06:22:44 51°13.59 2°56.13 -999 5.077189 34.270564 -0.814958
2003-06-24 06:22:50 51°13.59 2°56.13 -999 5.077084 34.270281 -0.781249
2003-06-24 06:22:56 51°13.59 2°56.13 -999 5.077189 34.2716 -0.74754
2003-06-24 06:23:00 51°13.59 2°56.13 -999 5.077084 34.270281 -0.781249
2003-06-24 06:23:06 51°13.59 2°56.13 -999 5.077084 34.270281 -0.781249
2003-06-24 06:23:10 51°13.59 2°56.13 -999 5.077084 34.2708 -0.781249
2003-06-24 06:23:16 51°13.59 2°56.13 -999 5.076978 34.271036 -0.781249
2003-06-24 06:23:20 51°13.59 2°56.13 -999 5.076978 34.271036 -0.814958
2003-06-24 06:23:24 51°13.59 2°56.13 -999 5.076978 34.271036 -0.781249
2003-06-24 06:23:30 51°13.59 2°56.13 -999 5.076872 34.270235 -0.781249
2003-06-24 06:23:36 51°13.59 2°56.13 -999 5.076872 34.270235 -0.781249
2003-06-24 06:23:40 51°13.59 2°56.13 -999 5.076872 34.270753 -0.781249
2003-06-24 06:23:46 51°13.59 2°56.13 -999 5.076872 34.271271 -0.781249
2003-06-24 06:23:50 51°13.59 2°56.13 -999 5.076767 34.270471 -0.814958
2003-06-24 06:23:56 51°13.59 2°56.13 -999 5.076661 34.270189 -0.74754
2003-06-24 06:24:00 51°13.59 2°56.13 -999 5.076767 34.270989 -0.781249
2003-06-24 06:24:04 51°13.59 2°56.13 -999 5.076767 34.270989 -0.781249
2003-06-24 06:24:10 51°13.59 2°56.13 -999 5.076661 34.270707 -0.781249
2003-06-24 06:24:16 51°13.59 2°56.13 -999 5.076556 34.269906 -0.814958
2003-06-24 06:24:20 51°13.59 2°56.13 -999 5.076556 34.270425 -0.781249
2003-06-24 06:24:24 51°13.59 2°56.13 -999 5.076661 34.271743 -0.781249
2003-06-24 06:24:30 51°13.59 2°56.13 -999 5.076556 34.270943 -0.74754
2003-06-24 06:24:36 51°13.59 2°56.13 -999 5.076556 34.270943 -0.74754
2003-06-24 06:24:40 51°13.59 2°56.13 -999 5.07645 34.270661 -0.781249
2003-06-24 06:24:46 51°13.59 2°56.12 -999 5.07645 34.270661 -0.814958
2003-06-24 06:24:52 51°13.59 2°56.12 -999 5.07645 34.271179 -0.781249
2003-06-24 06:24:56 51°13.59 2°56.11 -999 5.076345 34.270897 -0.74754
2003-06-24 06:25:02 51°13.59 2°56.11 -999 5.076239 34.270614 -0.74754
2003-06-24 06:25:08 51°13.59 2°56.1 -999 5.076239 34.270614 -0.74754
2003-06-24 06:25:12 51°13.6 2°56.1 -999 5.076345 34.270897 -0.74754
2003-06-24 06:25:18 51°13.6 2°56.09 -999 5.076239 34.271133 -0.781249
2003-06-24 06:25:24 51°13.6 2°56.09 -999 5.076239 34.271133 -0.74754
2003-06-24 06:25:28 51°13.6 2°56.08 -999 5.076239 34.271133 -0.781249
2003-06-24 06:25:34 51°13.6 2°56.08 -999 5.076239 34.271651 -0.781249
2003-06-24 06:25:38 51°13.6 2°56.07 -999 5.076239 34.271651 -0.781249
2003-06-24 06:25:44 51°13.6 2°56.06 -999 5.076134 34.27085 -0.781249
2003-06-24 06:25:48 51°13.6 2°56.06 -999 5.076134 34.271369 -0.781249
2003-06-24 06:25:54 51°13.61 2°56.05 -999 5.076028 34.271086 -0.781249
2003-06-24 06:26:00 51°13.61 2°56.04 -999 5.076134 34.272405 -0.814958
2003-06-24 06:26:04 51°13.61 2°56.04 -999 5.075817 34.270004 -0.781249
2003-06-24 06:26:10 51°13.61 2°56.03 -999 5.075817 34.270004 -0.781249
2003-06-24 06:26:16 51°13.61 2°56.02 -999 5.076028 34.271605 -0.781249
2003-06-24 06:26:20 51°13.62 2°56.01 -999 5.075817 34.270522 -0.74754
2003-06-24 06:26:26 51°13.62 2°56 -999 5.075711 34.27024 -0.781249
2003-06-24 06:26:30 51°13.62 2°56 -999 5.075817 34.27104 -0.814958
2003-06-24 06:26:36 51°13.62 2°55.99 -999 5.075711 34.270758 -0.781249
2003-06-24 06:26:40 51°13.62 2°55.98 -999 5.075711 34.270758 -0.781249
2003-06-24 06:26:46 51°13.62 2°55.97 -999 5.075711 34.271276 -0.814958
2003-06-24 06:26:50 51°13.63 2°55.97 -999 5.075711 34.270758 -0.781249
2003-06-24 06:26:56 51°13.63 2°55.96 -999 5.075606 34.270476 -0.814958
2003-06-24 06:27:00 51°13.63 2°55.95 -999 5.0755 34.270712 -0.781249
2003-06-24 06:27:06 51°13.63 2°55.94 -999 5.075606 34.270994 -0.74754
2003-06-24 06:27:10 51°13.64 2°55.93 -999 5.075606 34.270994 -0.74754
2003-06-24 06:27:16 51°13.64 2°55.92 -999 5.0755 34.27123 -0.781249
2003-06-24 06:27:20 51°13.64 2°55.92 -999 5.0755 34.27123 -0.781249
2003-06-24 06:27:24 51°13.64 2°55.91 -999 5.0755 34.271749 -0.814958
2003-06-24 06:27:30 51°13.65 2°55.9 -999 5.0755 34.271749 -0.781249
2003-06-24 06:27:36 51°13.65 2°55.89 -999 5.075395 34.271466 -0.781249
2003-06-24 06:27:40 51°13.65 2°55.89 -999 5.075395 34.271466 -0.781249
2003-06-24 06:27:46 51°13.66 2°55.88 -999 5.075289 34.270666 -0.74754
2003-06-24 06:27:50 51°13.66 2°55.87 -999 5.075289 34.271184 -0.74754
2003-06-24 06:27:56 51°13.66 2°55.86 -999 5.075184 34.270383 -0.814958
2003-06-24 06:28:00 51°13.66 2°55.85 -999 5.075184 34.269865 -0.781249
2003-06-24 06:28:06 51°13.67 2°55.84 -999 5.075184 34.270383 -0.814958
2003-06-24 06:28:10 51°13.67 2°55.84 -999 5.075184 34.270383 -0.814958
2003-06-24 06:28:16 51°13.67 2°55.83 -999 5.075184 34.270902 -0.781249
2003-06-24 06:28:20 51°13.67 2°55.82 -999 5.075184 34.27142 -0.74754
2003-06-24 06:28:26 51°13.68 2°55.81 -999 5.075078 34.270619 -0.781249
2003-06-24 06:28:30 51°13.68 2°55.81 -999 5.075078 34.271138 -0.74754
2003-06-24 06:28:36 51°13.69 2°55.8 -999 5.075078 34.271138 -0.781249
2003-06-24 06:28:40 51°13.69 2°55.79 -999 5.075078 34.271138 -0.781249
2003-06-24 06:28:44 51°13.69 2°55.79 -999 5.074973 34.270856 -0.781249
2003-06-24 06:28:50 51°13.7 2°55.78 -999 5.074867 34.270573 -0.781249
2003-06-24 06:28:56 51°13.7 2°55.77 -999 5.074867 34.270573 -0.814958
2003-06-24 06:29:00 51°13.7 2°55.77 -999 5.074761 34.270291 -0.781249
2003-06-24 06:29:06 51°13.71 2°55.76 -999 5.074867 34.27161 -0.781249
2003-06-24 06:29:10 51°13.71 2°55.75 -999 5.074867 34.27161 -0.781249
2003-06-24 06:29:16 51°13.72 2°55.75 -999 5.074656 34.270009 -0.781249
2003-06-24 06:29:20 51°13.72 2°55.74 -999 5.074867 34.272129 -0.781249
2003-06-24 06:29:26 51°13.73 2°55.74 -999 5.074762 34.271328 -0.814958
2003-06-24 06:29:30 51°13.73 2°55.73 -999 5.074762 34.271846 -0.781249
2003-06-24 06:29:34 51°13.73 2°55.73 -999 5.074656 34.271564 -0.814958
2003-06-24 06:29:40 51°13.73 2°55.73 -999 5.074656 34.271564 -0.814958
2003-06-24 06:29:44 51°13.73 2°55.73 -999 5.07455 34.270763 -0.74754
2003-06-24 06:29:48 51°13.73 2°55.73 -999 5.07455 34.270245 -0.74754
2003-06-24 06:29:52 51°13.73 2°55.73 -999 5.07455 34.270763 -0.781249
2003-06-24 06:29:56 51°13.74 2°55.72 -999 5.07455 34.270763 -0.814958
2003-06-24 06:30:00 51°13.74 2°55.72 -999 5.074445 34.271 -0.781249
2003-06-24 06:30:06 51°13.73 2°55.72 -999 5.074445 34.271 -0.781249
2003-06-24 06:30:10 51°13.73 2°55.72 -999 5.074445 34.271518 -0.781249
2003-06-24 06:30:16 51°13.73 2°55.72 -999 5.074445 34.271518 -0.74754
2003-06-24 06:30:20 51°13.73 2°55.72 -999 5.074339 34.271236 -0.781249
2003-06-24 06:30:26 51°13.73 2°55.72 -999 5.074339 34.271754 -0.781249
2003-06-24 06:30:30 51°13.73 2°55.72 -999 5.074339 34.271754 -0.781249
2003-06-24 06:30:36 51°13.73 2°55.72 -999 5.074339 34.271754 -0.781249
2003-06-24 06:30:40 51°13.73 2°55.72 -999 5.074339 34.272273 -0.781249
2003-06-24 06:30:44 51°13.72 2°55.72 -999 5.074234 34.271991 -0.74754
2003-06-24 06:30:50 51°13.72 2°55.71 -999 5.074339 34.27331 -0.781249
2003-06-24 06:30:56 51°13.72 2°55.71 -999 5.074234 34.272509 -0.781249
2003-06-24 06:31:00 51°13.72 2°55.71 -999 5.074023 34.271426 -0.781249
2003-06-24 06:31:04 51°13.72 2°55.71 -999 5.074023 34.271426 -0.781249
2003-06-24 06:31:10 51°13.72 2°55.71 -999 5.074128 34.272746 -0.781249
2003-06-24 06:31:16 51°13.72 2°55.71 -999 5.074023 34.271945 -0.781249
2003-06-24 06:31:20 51°13.72 2°55.71 -999 5.074023 34.271945 -0.781249
2003-06-24 06:31:26 51°13.72 2°55.71 -999 5.073917 34.272181 -0.781249
2003-06-24 06:31:30 51°13.72 2°55.71 -999 5.073917 34.272181 -0.781249
2003-06-24 06:31:36 51°13.72 2°55.71 -999 5.073917 34.272181 -0.781249
2003-06-24 06:31:40 51°13.72 2°55.71 -999 5.073917 34.272181 -0.781249
2003-06-24 06:31:46 51°13.72 2°55.71 -999 5.073812 34.27138 -0.781249
2003-06-24 06:31:52 51°13.72 2°55.72 -999 5.073917 34.272181 -0.781249
2003-06-24 06:31:56 51°13.72 2°55.72 -999 5.073706 34.271617 -0.814958
2003-06-24 06:32:02 51°13.73 2°55.72 -999 5.073706 34.270579 -0.781249
2003-06-24 06:32:08 51°13.73 2°55.72 -999 5.073706 34.270579 -0.781249
2003-06-24 06:32:12 51°13.73 2°55.73 -999 5.073812 34.272418 -0.781249
2003-06-24 06:32:18 51°13.73 2°55.73 -999 5.073706 34.271617 -0.781249
2003-06-24 06:32:24 51°13.73 2°55.73 -999 5.0736 34.271334 -0.781249
2003-06-24 06:32:28 51°13.73 2°55.73 -999 5.0736 34.271334 -0.74754
2003-06-24 06:32:34 51°13.73 2°55.73 -999 5.073495 34.270533 -0.814958
2003-06-24 06:32:38 51°13.73 2°55.73 -999 5.073495 34.270533 -0.814958
2003-06-24 06:32:44 51°13.73 2°55.73 -999 5.073495 34.271052 -0.814958
2003-06-24 06:32:48 51°13.73 2°55.72 -999 5.073495 34.271052 -0.781249
2003-06-24 06:32:52 51°13.73 2°55.72 -999 5.073495 34.271052 -0.781249
2003-06-24 06:32:56 51°13.73 2°55.72 -999 5.073389 34.271288 -0.781249
2003-06-24 06:33:02 51°13.73 2°55.71 -999 5.073495 34.272089 -0.781249
2003-06-24 06:33:06 51°13.73 2°55.71 -999 5.073495 34.272089 -0.781249
2003-06-24 06:33:10 51°13.73 2°55.71 -999 5.073389 34.271807 -0.814958
2003-06-24 06:33:16 51°13.73 2°55.7 -999 5.073389 34.272326 -0.814958
2003-06-24 06:33:20 51°13.73 2°55.7 -999 5.073284 34.272044 -0.781249
2003-06-24 06:33:26 51°13.73 2°55.7 -999 5.073178 34.271761 -0.781249
2003-06-24 06:33:30 51°13.73 2°55.7 -999 5.073284 34.273081 -0.781249
2003-06-24 06:33:36 51°13.73 2°55.7 -999 5.073284 34.273081 -0.781249
2003-06-24 06:33:40 51°13.73 2°55.7 -999 5.073178 34.27228 -0.781249
2003-06-24 06:33:44 51°13.73 2°55.7 -999 5.073178 34.27228 -0.781249
2003-06-24 06:33:50 51°13.73 2°55.7 -999 5.073073 34.272516 -0.781249
2003-06-24 06:33:56 51°13.73 2°55.71 -999 5.073073 34.272516 -0.814958
2003-06-24 06:34:02 51°13.73 2°55.71 -999 5.072967 34.271715 -0.781249
2003-06-24 06:34:08 51°13.73 2°55.71 -999 5.072967 34.271715 -0.781249
2003-06-24 06:34:12 51°13.73 2°55.71 -999 5.073073 34.273035 -0.74754
2003-06-24 06:34:18 51°13.73 2°55.71 -999 5.072967 34.272234 -0.781249
2003-06-24 06:34:22 51°13.73 2°55.71 -999 5.072967 34.272234 -0.814958
2003-06-24 06:34:26 51°13.73 2°55.71 -999 5.072756 34.270632 -0.781249
2003-06-24 06:34:28 51°13.73 2°55.71 -999 5.072862 34.271433 -0.74754
2003-06-24 06:34:36 51°13.73 2°55.7 -999 5.072862 34.271433 -0.74754
2003-06-24 06:34:42 51°13.73 2°55.7 -999 5.072862 34.271952 -0.781249
2003-06-24 06:34:46 51°13.73 2°55.69 -999 5.072651 34.270868 -0.781249
2003-06-24 06:34:52 51°13.74 2°55.69 -999 5.072756 34.27167 -0.781249
2003-06-24 06:34:56 51°13.74 2°55.69 -999 5.072651 34.271387 -0.781249
2003-06-24 06:35:00 51°13.75 2°55.68 -999 5.072756 34.272188 -0.814958
2003-06-24 06:35:04 51°13.75 2°55.68 -999 5.072756 34.272188 -0.814958
2003-06-24 06:35:10 51°13.76 2°55.67 -999 5.072545 34.270586 -0.74754
2003-06-24 06:35:16 51°13.76 2°55.67 -999 5.072756 34.272707 -0.74754
2003-06-24 06:35:20 51°13.77 2°55.66 -999 5.072651 34.272425 -0.781249
2003-06-24 06:35:24 51°13.77 2°55.66 -999 5.072545 34.271624 -0.781249
2003-06-24 06:35:30 51°13.78 2°55.65 -999 5.072545 34.272662 -0.74754
2003-06-24 06:35:36 51°13.79 2°55.64 -999 5.072545 34.272662 -0.74754
2003-06-24 06:35:40 51°13.8 2°55.64 -999 5.072439 34.27186 -0.781249
2003-06-24 06:35:44 51°13.8 2°55.63 -999 5.072439 34.27186 -0.781249
2003-06-24 06:35:50 51°13.81 2°55.63 -999 5.07244 34.272379 -0.781249
2003-06-24 06:35:56 51°13.82 2°55.62 -999 5.07244 34.272379 -0.74754
2003-06-24 06:36:00 51°13.83 2°55.61 -999 5.07244 34.272379 -0.781249
2003-06-24 06:36:04 51°13.84 2°55.61 -999 5.07244 34.272379 -0.781249
2003-06-24 06:36:10 51°13.85 2°55.6 -999 5.072334 34.272097 -0.781249
2003-06-24 06:36:16 51°13.86 2°55.59 -999 5.072228 34.271815 -0.781249
2003-06-24 06:36:20 51°13.87 2°55.59 -999 5.072123 34.271013 -0.781249
2003-06-24 06:36:24 51°13.88 2°55.58 -999 5.072228 34.271815 -0.781249
2003-06-24 06:36:32 51°13.89 2°55.57 -999 5.072228 34.271815 -0.781249
2003-06-24 06:36:36 51°13.9 2°55.57 -999 5.072228 34.271815 -0.781249
2003-06-24 06:36:40 51°13.91 2°55.56 -999 5.072017 34.270731 -0.74754
2003-06-24 06:36:46 51°13.92 2°55.55 -999 5.072123 34.271532 -0.814958
2003-06-24 06:36:50 51°13.93 2°55.55 -999 5.072017 34.27125 -0.781249
2003-06-24 06:36:56 51°13.94 2°55.54 -999 5.072017 34.271769 -0.814958
2003-06-24 06:37:00 51°13.95 2°55.54 -999 5.072017 34.271769 -0.781249
2003-06-24 06:37:06 51°13.96 2°55.53 -999 5.072017 34.271769 -0.781249
2003-06-24 06:37:10 51°13.97 2°55.52 -999 5.072017 34.271769 -0.781249
2003-06-24 06:37:16 51°13.98 2°55.52 -999 5.071912 34.271487 -0.814958
2003-06-24 06:37:20 51°13.99 2°55.51 -999 5.071912 34.272005 -0.74754
2003-06-24 06:37:26 51°14 2°55.5 -999 5.071806 34.271204 -0.781249
2003-06-24 06:37:30 51°14.01 2°55.5 -999 5.071806 34.271723 -0.781249
2003-06-24 06:37:36 51°14.02 2°55.49 -999 5.071806 34.271723 -0.781249
2003-06-24 06:37:40 51°14.03 2°55.48 -999 5.071806 34.271723 -0.74754
2003-06-24 06:37:44 51°14.03 2°55.48 -999 5.071912 34.273043 -0.814958
2003-06-24 06:37:50 51°14.04 2°55.47 -999 5.071595 34.27064 -0.74754
2003-06-24 06:37:56 51°14.06 2°55.46 -999 5.071806 34.272761 -0.781249
2003-06-24 06:38:00 51°14.06 2°55.46 -999 5.071595 34.271677 -0.781249
2003-06-24 06:38:06 51°14.08 2°55.45 -999 5.071595 34.271677 -0.781249
2003-06-24 06:38:08 51°14.08 2°55.45 -999 5.071595 34.271677 -0.781249
2003-06-24 06:38:16 51°14.09 2°55.44 -999 5.071595 34.271677 -0.781249
2003-06-24 06:38:20 51°14.1 2°55.43 -999 5.071384 34.270075 -0.74754
2003-06-24 06:38:26 51°14.11 2°55.42 -999 5.07149 34.271914 -0.781249
2003-06-24 06:38:30 51°14.12 2°55.41 -999 5.07149 34.271914 -0.781249
2003-06-24 06:38:36 51°14.13 2°55.41 -999 5.07149 34.271914 -0.781249
2003-06-24 06:38:40 51°14.14 2°55.4 -999 5.071384 34.271632 -0.781249
2003-06-24 06:38:46 51°14.15 2°55.39 -999 5.071384 34.271632 -0.814958
2003-06-24 06:38:50 51°14.16 2°55.38 -999 5.071384 34.271632 -0.781249
2003-06-24 06:38:56 51°14.17 2°55.37 -999 5.071278 34.27135 -0.781249
2003-06-24 06:39:00 51°14.18 2°55.37 -999 5.071173 34.270548 -0.781249
2003-06-24 06:39:04 51°14.18 2°55.36 -999 5.071173 34.270548 -0.781249
2003-06-24 06:39:10 51°14.19 2°55.35 -999 5.071173 34.271586 -0.781249
2003-06-24 06:39:16 51°14.2 2°55.33 -999 5.071278 34.272388 -0.781249
2003-06-24 06:39:20 51°14.21 2°55.33 -999 5.071279 34.272907 -0.781249
2003-06-24 06:39:24 51°14.22 2°55.32 -999 5.071067 34.271304 -0.814958
2003-06-24 06:39:32 51°14.23 2°55.3 -999 5.071173 34.272105 -0.74754
2003-06-24 06:39:36 51°14.24 2°55.29 -999 5.071173 34.272105 -0.74754
2003-06-24 06:39:40 51°14.25 2°55.28 -999 5.071067 34.271304 -0.74754
2003-06-24 06:39:44 51°14.25 2°55.27 -999 5.070962 34.271022 -0.781249
2003-06-24 06:39:50 51°14.26 2°55.25 -999 5.071067 34.272342 -0.814958
2003-06-24 06:39:56 51°14.27 2°55.23 -999 5.070962 34.27206 -0.781249
2003-06-24 06:40:00 51°14.28 2°55.22 -999 5.070962 34.271541 -0.814958
2003-06-24 06:40:04 51°14.28 2°55.21 -999 5.070962 34.271541 -0.814958
2003-06-24 06:40:10 51°14.29 2°55.19 -999 5.070962 34.27206 -0.781249
2003-06-24 06:40:16 51°14.3 2°55.17 -999 5.070962 34.272579 -0.781249
2003-06-24 06:40:20 51°14.31 2°55.16 -999 5.070751 34.270976 -0.781249
2003-06-24 06:40:24 51°14.31 2°55.15 -999 5.070962 34.272579 -0.781249
2003-06-24 06:40:30 51°14.32 2°55.13 -999 5.070962 34.272579 -0.74754
2003-06-24 06:40:36 51°14.33 2°55.11 -999 5.070962 34.272579 -0.74754
2003-06-24 06:40:40 51°14.34 2°55.09 -999 5.070751 34.271495 -0.814958
2003-06-24 06:40:44 51°14.35 2°55.08 -999 5.070856 34.272816 -0.781249
2003-06-24 06:40:50 51°14.36 2°55.06 -999 5.070751 34.272014 -0.781249
2003-06-24 06:40:56 51°14.37 2°55.05 -999 5.07054 34.270411 -0.814958
2003-06-24 06:41:00 51°14.38 2°55.04 -999 5.070645 34.271213 -0.781249
2003-06-24 06:41:04 51°14.39 2°55.03 -999 5.070645 34.271213 -0.781249
2003-06-24 06:41:10 51°14.41 2°55.01 -999 5.070751 34.273052 -0.781249
2003-06-24 06:41:16 51°14.42 2°55 -999 5.070645 34.272251 -0.781249
2003-06-24 06:41:20 51°14.43 2°54.99 -999 5.070645 34.273289 -0.781249
2003-06-24 06:41:26 51°14.45 2°54.98 -999 5.070645 34.273289 -0.781249
2003-06-24 06:41:30 51°14.46 2°54.96 -999 5.070434 34.272205 -0.814958
2003-06-24 06:41:36 51°14.48 2°54.95 -999 5.070434 34.272205 -0.814958
2003-06-24 06:41:40 51°14.49 2°54.94 -999 5.07054 34.273526 -0.781249
2003-06-24 06:41:44 51°14.5 2°54.93 -999 5.07054 34.272488 -0.814958
2003-06-24 06:41:52 51°14.52 2°54.91 -999 5.070329 34.271923 -0.74754
2003-06-24 06:41:56 51°14.53 2°54.9 -999 5.070329 34.272442 -0.781249
2003-06-24 06:42:00 51°14.54 2°54.89 -999 5.07054 34.274045 -0.781249
2003-06-24 06:42:06 51°14.56 2°54.87 -999 5.07054 34.274045 -0.781249
2003-06-24 06:42:12 51°14.58 2°54.85 -999 5.070329 34.272961 -0.781249
2003-06-24 06:42:20 51°14.6 2°54.83 -999 5.070223 34.272679 -0.814958
2003-06-24 06:42:30 51°14.63 2°54.8 -999 5.070223 34.272679 -0.781249
2003-06-24 06:42:34 51°14.64 2°54.79 -999 5.070117 34.271358 -0.781249
2003-06-24 06:42:40 51°14.66 2°54.78 -999 5.070117 34.272397 -0.814958
2003-06-24 06:42:44 51°14.67 2°54.76 -999 5.070117 34.272397 -0.814958
2003-06-24 06:42:50 51°14.69 2°54.75 -999 5.070012 34.271595 -0.781249
2003-06-24 06:42:54 51°14.7 2°54.74 -999 5.070117 34.272397 -0.814958
2003-06-24 06:43:00 51°14.71 2°54.72 -999 5.070117 34.272397 -0.814958
2003-06-24 06:43:10 51°14.74 2°54.69 -999 5.070117 34.272397 -0.781249
2003-06-24 06:43:14 51°14.75 2°54.68 -999 5.069906 34.271832 -0.781249
2003-06-24 06:43:20 51°14.77 2°54.66 -999 5.069801 34.271031 -0.781249
2003-06-24 06:43:24 51°14.78 2°54.65 -999 5.069695 34.271267 -0.781249
2003-06-24 06:43:28 51°14.79 2°54.64 -999 5.069695 34.271267 -0.781249
2003-06-24 06:43:42 51°14.84 2°54.6 -999 5.069801 34.272588 -0.814958
2003-06-24 06:43:48 51°14.85 2°54.58 -999 5.069695 34.271267 -0.74754
2003-06-24 06:43:52 51°14.87 2°54.57 -999 5.069801 34.272588 -0.781249
2003-06-24 06:43:56 51°14.88 2°54.56 -999 5.069695 34.271267 -0.781249
2003-06-24 06:44:02 51°14.89 2°54.54 -999 5.06959 34.270985 -0.814958
2003-06-24 06:44:08 51°14.91 2°54.52 -999 5.069695 34.271787 -0.814958
2003-06-24 06:44:12 51°14.92 2°54.51 -999 5.069695 34.271787 -0.814958
2003-06-24 06:44:16 51°14.94 2°54.5 -999 5.069695 34.272306 -0.781249
2003-06-24 06:44:20 51°14.95 2°54.49 -999 5.06959 34.271504 -0.781249
2003-06-24 06:44:24 51°14.96 2°54.48 -999 5.069695 34.273344 -0.781249
2003-06-24 06:44:32 51°14.98 2°54.45 -999 5.069695 34.273344 -0.781249
2003-06-24 06:44:36 51°15 2°54.44 -999 5.069273 34.270657 -0.814958
2003-06-24 06:44:42 51°15.01 2°54.42 -999 5.069273 34.270657 -0.814958
2003-06-24 06:44:48 51°15.03 2°54.4 -999 5.069484 34.27226 -0.781249
2003-06-24 06:44:52 51°15.04 2°54.39 -999 5.069484 34.27226 -0.814958
2003-06-24 06:44:56 51°15.06 2°54.38 -999 5.069484 34.27278 -0.74754
2003-06-24 06:45:02 51°15.08 2°54.36 -999 5.069379 34.272497 -0.781249
2003-06-24 06:45:06 51°15.09 2°54.35 -999 5.06959 34.274101 -0.781249
2003-06-24 06:45:12 51°15.11 2°54.33 -999 5.06959 34.274101 -0.781249
2003-06-24 06:45:16 51°15.12 2°54.32 -999 5.06959 34.274101 -0.781249
2003-06-24 06:45:22 51°15.14 2°54.3 -999 5.069379 34.273017 -0.781249
2003-06-24 06:45:28 51°15.16 2°54.28 -999 5.069379 34.273017 -0.781249
2003-06-24 06:45:32 51°15.17 2°54.26 -999 5.069379 34.273017 -0.781249
2003-06-24 06:45:36 51°15.18 2°54.25 -999 5.069273 34.272215 -0.781249
2003-06-24 06:45:42 51°15.2 2°54.23 -999 5.069273 34.272215 -0.781249
2003-06-24 06:45:48 51°15.22 2°54.21 -999 5.069273 34.272734 -0.848668
2003-06-24 06:45:52 51°15.23 2°54.2 -999 5.069273 34.272734 -0.848668
2003-06-24 06:46:00 51°15.26 2°54.17 -999 5.069273 34.273254 -0.74754
2003-06-24 06:46:08 51°15.28 2°54.15 -999 5.069273 34.273773 -0.781249
2003-06-24 06:46:12 51°15.3 2°54.14 -999 5.069273 34.273773 -0.781249
2003-06-24 06:46:16 51°15.31 2°54.12 -999 5.069062 34.27217 -0.781249
2003-06-24 06:46:20 51°15.32 2°54.11 -999 5.069168 34.272971 -0.74754
2003-06-24 06:46:30 51°15.35 2°54.08 -999 5.069062 34.273208 -0.781249
2003-06-24 06:46:36 51°15.37 2°54.06 -999 5.069168 34.27401 -0.781249
2003-06-24 06:46:40 51°15.38 2°54.05 -999 5.069062 34.273208 -0.781249
2003-06-24 06:46:44 51°15.4 2°54.03 -999 5.068956 34.272926 -0.781249
2003-06-24 06:46:48 51°15.41 2°54.02 -999 5.068851 34.272124 -0.781249
2003-06-24 06:47:02 51°15.45 2°53.97 -999 5.068956 34.272407 -0.814958
2003-06-24 06:47:08 51°15.47 2°53.95 -999 5.068956 34.272926 -0.814958
2003-06-24 06:47:12 51°15.49 2°53.94 -999 5.068956 34.272926 -0.814958
2003-06-24 06:47:16 51°15.5 2°53.93 -999 5.068957 34.273446 -0.781249
2003-06-24 06:47:20 51°15.51 2°53.91 -999 5.068851 34.273683 -0.74754
2003-06-24 06:47:28 51°15.54 2°53.89 -999 5.068851 34.273163 -0.74754
2003-06-24 06:47:32 51°15.55 2°53.87 -999 5.068745 34.272881 -0.781249
2003-06-24 06:47:36 51°15.56 2°53.86 -999 5.068745 34.2734 -0.814958
2003-06-24 06:47:40 51°15.57 2°53.85 -999 5.068745 34.2734 -0.814958
2003-06-24 06:47:50 51°15.61 2°53.82 -999 5.06864 34.273118 -0.781249
2003-06-24 06:47:56 51°15.62 2°53.8 -999 5.06864 34.272599 -0.781249
2003-06-24 06:48:00 51°15.64 2°53.79 -999 5.06864 34.272599 -0.781249
2003-06-24 06:48:04 51°15.65 2°53.78 -999 5.068534 34.272316 -0.74754
2003-06-24 06:48:08 51°15.67 2°53.76 -999 5.068745 34.274439 -0.781249
2003-06-24 06:48:16 51°15.69 2°53.74 -999 5.06864 34.274157 -0.814958
2003-06-24 06:48:20 51°15.71 2°53.73 -999 5.068534 34.273355 -0.781249
2003-06-24 06:48:24 51°15.72 2°53.72 -999 5.068534 34.273355 -0.781249
2003-06-24 06:48:28 51°15.73 2°53.71 -999 5.068534 34.273355 -0.781249
2003-06-24 06:48:40 51°15.77 2°53.67 -999 5.068534 34.274394 -0.781249
2003-06-24 06:48:50 51°15.81 2°53.65 -999 5.068429 34.273073 -0.814958
2003-06-24 06:48:54 51°15.82 2°53.64 -999 5.068429 34.273592 -0.781249
2003-06-24 06:49:00 51°15.84 2°53.62 -999 5.068429 34.273592 -0.781249
2003-06-24 06:49:04 51°15.85 2°53.61 -999 5.068323 34.27279 -0.781249
2003-06-24 06:49:10 51°15.88 2°53.59 -999 5.068218 34.272508 -0.781249
2003-06-24 06:49:16 51°15.9 2°53.57 -999 5.068323 34.27331 -0.74754
2003-06-24 06:49:20 51°15.91 2°53.56 -999 5.068323 34.273829 -0.781249
2003-06-24 06:49:24 51°15.92 2°53.55 -999 5.068323 34.273829 -0.781249
2003-06-24 06:49:28 51°15.94 2°53.54 -999 5.068323 34.273829 -0.781249
2003-06-24 06:49:36 51°15.96 2°53.52 -999 5.068218 34.273028 -0.814958
2003-06-24 06:49:40 51°15.98 2°53.51 -999 5.068323 34.274349 -0.814958
2003-06-24 06:49:44 51°15.99 2°53.5 -999 5.068218 34.273547 -0.781249
2003-06-24 06:49:48 51°16 2°53.49 -999 5.068112 34.273265 -0.814958
2003-06-24 06:50:00 51°16.04 2°53.45 -999 5.068112 34.272745 -0.814958
2003-06-24 06:50:08 51°16.07 2°53.43 -999 5.068007 34.272463 -0.781249
2003-06-24 06:50:12 51°16.09 2°53.42 -999 5.068007 34.272463 -0.781249
2003-06-24 06:50:16 51°16.1 2°53.41 -999 5.068112 34.273784 -0.814958
2003-06-24 06:50:20 51°16.11 2°53.4 -999 5.068112 34.273784 -0.781249
2003-06-24 06:50:28 51°16.14 2°53.37 -999 5.068112 34.274304 -0.814958
2003-06-24 06:50:32 51°16.15 2°53.36 -999 5.067901 34.2727 -0.814958
2003-06-24 06:50:36 51°16.17 2°53.35 -999 5.068007 34.274021 -0.781249
2003-06-24 06:50:42 51°16.19 2°53.33 -999 5.068007 34.274021 -0.781249
2003-06-24 06:50:48 51°16.21 2°53.32 -999 5.068007 34.274541 -0.781249
2003-06-24 06:50:52 51°16.22 2°53.31 -999 5.067795 34.272418 -0.781249
2003-06-24 06:51:02 51°16.25 2°53.28 -999 5.067901 34.273739 -0.781249
2003-06-24 06:51:08 51°16.27 2°53.26 -999 5.067901 34.273739 -0.781249
2003-06-24 06:51:12 51°16.29 2°53.25 -999 5.067901 34.273739 -0.781249
2003-06-24 06:51:16 51°16.3 2°53.24 -999 5.068007 34.274541 -0.781249
2003-06-24 06:51:20 51°16.31 2°53.23 -999 5.06769 34.272135 -0.74754
2003-06-24 06:51:24 51°16.33 2°53.22 -999 5.067795 34.273457 -0.814958
2003-06-24 06:51:32 51°16.35 2°53.19 -999 5.06769 34.273174 -0.781249
2003-06-24 06:51:36 51°16.37 2°53.18 -999 5.068007 34.27558 -0.781249
2003-06-24 06:51:40 51°16.38 2°53.17 -999 5.068007 34.27558 -0.781249
2003-06-24 06:51:50 51°16.41 2°53.14 -999 5.067584 34.273412 -0.781249
2003-06-24 06:51:56 51°16.43 2°53.13 -999 5.06769 34.273694 -0.781249
2003-06-24 06:52:00 51°16.45 2°53.11 -999 5.06769 34.273694 -0.781249
2003-06-24 06:52:04 51°16.46 2°53.1 -999 5.06769 34.273694 -0.814958
2003-06-24 06:52:08 51°16.47 2°53.09 -999 5.067796 34.275015 -0.814958
2003-06-24 06:52:16 51°16.5 2°53.07 -999 5.06769 34.274214 -0.781249
2003-06-24 06:52:20 51°16.51 2°53.06 -999 5.06769 34.274733 -0.814958
2003-06-24 06:52:24 51°16.53 2°53.05 -999 5.067584 34.274451 -0.74754
2003-06-24 06:52:28 51°16.54 2°53.04 -999 5.067584 34.274451 -0.74754
2003-06-24 06:52:36 51°16.57 2°53.01 -999 5.06769 34.274733 -0.74754
2003-06-24 06:52:40 51°16.58 2°53 -999 5.06769 34.274733 -0.814958
2003-06-24 06:52:44 51°16.59 2°52.99 -999 5.067479 34.274168 -0.781249
2003-06-24 06:52:50 51°16.61 2°52.98 -999 5.067584 34.274451 -0.781249
2003-06-24 06:52:54 51°16.62 2°52.96 -999 5.067479 34.274168 -0.781249
2003-06-24 06:53:00 51°16.64 2°52.95 -999 5.067479 34.274168 -0.781249
2003-06-24 06:53:04 51°16.66 2°52.94 -999 5.06769 34.276292 -0.781249
2003-06-24 06:53:10 51°16.68 2°52.92 -999 5.067479 34.274688 -0.781249
2003-06-24 06:53:12 51°16.68 2°52.91 -999 5.067479 34.274688 -0.781249
2003-06-24 06:53:20 51°16.71 2°52.89 -999 5.067479 34.274688 -0.781249
2003-06-24 06:53:24 51°16.72 2°52.88 -999 5.067268 34.273604 -0.781249
2003-06-24 06:53:28 51°16.74 2°52.87 -999 5.067268 34.273604 -0.781249
2003-06-24 06:53:36 51°16.76 2°52.85 -999 5.067479 34.275208 -0.781249
2003-06-24 06:53:40 51°16.77 2°52.84 -999 5.067162 34.273321 -0.814958
2003-06-24 06:53:44 51°16.79 2°52.83 -999 5.067479 34.275727 -0.814958
2003-06-24 06:53:48 51°16.8 2°52.81 -999 5.067373 34.274925 -0.781249
2003-06-24 06:54:00 51°16.84 2°52.78 -999 5.067268 34.274643 -0.814958
2003-06-24 06:54:08 51°16.86 2°52.76 -999 5.067268 34.274643 -0.781249
2003-06-24 06:54:12 51°16.88 2°52.75 -999 5.067268 34.274643 -0.781249
2003-06-24 06:54:16 51°16.89 2°52.74 -999 5.067268 34.275163 -0.781249
2003-06-24 06:54:20 51°16.9 2°52.72 -999 5.067268 34.275163 -0.781249
2003-06-24 06:54:24 51°16.92 2°52.71 -999 5.067268 34.275163 -0.781249
2003-06-24 06:54:32 51°16.94 2°52.69 -999 5.067373 34.276485 -0.74754
2003-06-24 06:54:36 51°16.96 2°52.68 -999 5.067057 34.274078 -0.74754
2003-06-24 06:54:42 51°16.98 2°52.66 -999 5.067057 34.274078 -0.74754
2003-06-24 06:54:48 51°17 2°52.65 -999 5.067373 34.276485 -0.781249
2003-06-24 06:54:52 51°17.01 2°52.64 -999 5.067057 34.274078 -0.781249
2003-06-24 06:54:56 51°17.02 2°52.63 -999 5.066951 34.272757 -0.814958
2003-06-24 06:55:02 51°17.05 2°52.62 -999 5.067162 34.27488 -0.74754
2003-06-24 06:55:08 51°17.07 2°52.62 -999 5.067162 34.2754 -0.781249
2003-06-24 06:55:12 51°17.08 2°52.61 -999 5.067162 34.2754 -0.781249
2003-06-24 06:55:16 51°17.1 2°52.61 -999 5.067057 34.275118 -0.781249
2003-06-24 06:55:20 51°17.11 2°52.61 -999 5.066951 34.274836 -0.781249
2003-06-24 06:55:24 51°17.13 2°52.61 -999 5.066951 34.275355 -0.781249
2003-06-24 06:55:32 51°17.16 2°52.6 -999 5.066846 34.274553 -0.781249
2003-06-24 06:55:36 51°17.17 2°52.6 -999 5.066846 34.275073 -0.781249
2003-06-24 06:55:40 51°17.19 2°52.6 -999 5.066846 34.275073 -0.781249
2003-06-24 06:55:50 51°17.23 2°52.6 -999 5.066951 34.275355 -0.781249
2003-06-24 06:55:56 51°17.25 2°52.59 -999 5.066846 34.275073 -0.74754
2003-06-24 06:56:00 51°17.26 2°52.59 -999 5.066846 34.275073 -0.74754
2003-06-24 06:56:04 51°17.28 2°52.59 -999 5.066846 34.275593 -0.814958
2003-06-24 06:56:08 51°17.29 2°52.59 -999 5.066846 34.275593 -0.781249
2003-06-24 06:56:22 51°17.35 2°52.58 -999 5.066635 34.273989 -0.814958
2003-06-24 06:56:28 51°17.37 2°52.58 -999 5.066846 34.276632 -0.814958
2003-06-24 06:56:32 51°17.39 2°52.57 -999 5.066846 34.276632 -0.781249
2003-06-24 06:56:36 51°17.4 2°52.57 -999 5.06674 34.27583 -0.74754
2003-06-24 06:56:40 51°17.42 2°52.57 -999 5.06674 34.27583 -0.74754
2003-06-24 06:56:48 51°17.45 2°52.57 -999 5.066635 34.275028 -0.74754
2003-06-24 06:56:52 51°17.46 2°52.57 -999 5.06674 34.27583 -0.781249
2003-06-24 06:56:56 51°17.48 2°52.57 -999 5.066635 34.275028 -0.781249
2003-06-24 06:57:00 51°17.49 2°52.56 -999 5.06674 34.27583 -0.781249
2003-06-24 06:57:08 51°17.52 2°52.56 -999 5.06674 34.27583 -0.814958
2003-06-24 06:57:12 51°17.54 2°52.56 -999 5.06674 34.27583 -0.814958
2003-06-24 06:57:16 51°17.55 2°52.56 -999 5.06674 34.27583 -0.74754
2003-06-24 06:57:22 51°17.58 2°52.55 -999 5.066529 34.274746 -0.781249
2003-06-24 06:57:28 51°17.6 2°52.55 -999 5.066635 34.276068 -0.74754
2003-06-24 06:57:32 51°17.61 2°52.55 -999 5.066529 34.275785 -0.814958
2003-06-24 06:57:36 51°17.63 2°52.55 -999 5.066423 34.274983 -0.781249
2003-06-24 06:57:42 51°17.65 2°52.55 -999 5.066423 34.274983 -0.781249
2003-06-24 06:57:48 51°17.68 2°52.54 -999 5.066635 34.276587 -0.814958
2003-06-24 06:57:52 51°17.69 2°52.54 -999 5.066318 34.274181 -0.781249
2003-06-24 06:58:00 51°17.72 2°52.54 -999 5.066635 34.276587 -0.781249
2003-06-24 06:58:08 51°17.75 2°52.54 -999 5.066423 34.275503 -0.814958
2003-06-24 06:58:12 51°17.77 2°52.53 -999 5.066423 34.275503 -0.814958
2003-06-24 06:58:16 51°17.78 2°52.53 -999 5.066423 34.275503 -0.781249
2003-06-24 06:58:20 51°17.8 2°52.53 -999 5.066529 34.276825 -0.781249
2003-06-24 06:58:24 51°17.81 2°52.53 -999 5.066423 34.276023 -0.781249
2003-06-24 06:58:32 51°17.84 2°52.53 -999 5.066212 34.274938 -0.814958
2003-06-24 06:58:36 51°17.86 2°52.52 -999 5.066318 34.27574 -0.781249
2003-06-24 06:58:42 51°17.88 2°52.52 -999 5.066318 34.27574 -0.781249
2003-06-24 06:58:48 51°17.91 2°52.52 -999 5.066423 34.276543 -0.814958
2003-06-24 06:58:52 51°17.92 2°52.52 -999 5.066529 34.277345 -0.781249
2003-06-24 06:58:56 51°17.94 2°52.52 -999 5.066212 34.275458 -0.814958
2003-06-24 06:59:02 51°17.96 2°52.51 -999 5.066318 34.27626 -0.781249
2003-06-24 06:59:08 51°17.98 2°52.51 -999 5.066212 34.275978 -0.814958
2003-06-24 06:59:12 51°18 2°52.51 -999 5.066212 34.275978 -0.814958
2003-06-24 06:59:20 51°18.03 2°52.51 -999 5.066212 34.276498 -0.74754
2003-06-24 06:59:24 51°18.04 2°52.51 -999 5.066318 34.2773 -0.814958
2003-06-24 06:59:32 51°18.08 2°52.5 -999 5.066212 34.276498 -0.781249
2003-06-24 06:59:36 51°18.09 2°52.5 -999 5.066212 34.277018 -0.74754
2003-06-24 06:59:40 51°18.11 2°52.5 -999 5.066212 34.277018 -0.74754
2003-06-24 06:59:50 51°18.14 2°52.5 -999 5.066107 34.276735 -0.814958
2003-06-24 06:59:56 51°18.17 2°52.5 -999 5.066212 34.277538 -0.814958
2003-06-24 07:00:00 51°18.18 2°52.49 -999 5.066212 34.277538 -0.814958
2003-06-24 07:00:04 51°18.2 2°52.49 -999 5.066107 34.276735 -0.74754
2003-06-24 07:00:10 51°18.22 2°52.49 -999 5.066001 34.275933 -0.814958
2003-06-24 07:00:16 51°18.24 2°52.49 -999 5.066107 34.276216 -0.781249
2003-06-24 07:00:20 51°18.26 2°52.49 -999 5.066212 34.277018 -0.74754
2003-06-24 07:00:24 51°18.28 2°52.5 -999 5.066107 34.276735 -0.781249
2003-06-24 07:00:30 51°18.3 2°52.5 -999 5.066107 34.276735 -0.781249
2003-06-24 07:00:36 51°18.32 2°52.51 -999 5.066001 34.275933 -0.781249
2003-06-24 07:00:40 51°18.34 2°52.52 -999 5.066001 34.276973 -0.814958
2003-06-24 07:00:44 51°18.35 2°52.53 -999 5.066001 34.276973 -0.781249
2003-06-24 07:00:50 51°18.37 2°52.54 -999 5.066001 34.276973 -0.781249
2003-06-24 07:00:56 51°18.39 2°52.57 -999 5.065896 34.276691 -0.781249
2003-06-24 07:01:00 51°18.4 2°52.58 -999 5.065896 34.276691 -0.781249
2003-06-24 07:01:04 51°18.41 2°52.6 -999 5.066001 34.278013 -0.74754
2003-06-24 07:01:10 51°18.43 2°52.63 -999 5.065685 34.276646 -0.781249
2003-06-24 07:01:16 51°18.44 2°52.66 -999 5.06579 34.277448 -0.814958
2003-06-24 07:01:20 51°18.45 2°52.68 -999 5.065896 34.278771 -0.814958
2003-06-24 07:01:24 51°18.45 2°52.7 -999 5.06579 34.278488 -0.781249
2003-06-24 07:01:30 51°18.46 2°52.74 -999 5.06579 34.278488 -0.781249
2003-06-24 07:01:36 51°18.47 2°52.77 -999 5.066001 34.279573 -0.781249
2003-06-24 07:01:40 51°18.48 2°52.8 -999 5.06579 34.279008 -0.781249
2003-06-24 07:01:50 51°18.49 2°52.85 -999 5.065579 34.277924 -0.814958
2003-06-24 07:01:56 51°18.5 2°52.89 -999 5.06579 34.278488 -0.781249
2003-06-24 07:02:00 51°18.51 2°52.91 -999 5.06579 34.278488 -0.781249
2003-06-24 07:02:10 51°18.53 2°52.97 -999 5.065685 34.277166 -0.781249
2003-06-24 07:02:14 51°18.53 2°52.99 -999 5.065579 34.277404 -0.74754
2003-06-24 07:02:20 51°18.54 2°53.03 -999 5.06579 34.279008 -0.74754
2003-06-24 07:02:24 51°18.55 2°53.05 -999 5.065685 34.278206 -0.814958
2003-06-24 07:02:30 51°18.56 2°53.09 -999 5.065685 34.278206 -0.814958
2003-06-24 07:02:36 51°18.57 2°53.12 -999 5.065685 34.278206 -0.814958
2003-06-24 07:02:40 51°18.58 2°53.14 -999 5.065685 34.278726 -0.781249
2003-06-24 07:02:50 51°18.6 2°53.2 -999 5.065685 34.278206 -0.781249
2003-06-24 07:02:56 51°18.61 2°53.24 -999 5.065579 34.277404 -0.814958
2003-06-24 07:03:00 51°18.61 2°53.26 -999 5.065579 34.277404 -0.814958
2003-06-24 07:03:04 51°18.62 2°53.28 -999 5.065474 34.277121 -0.781249
2003-06-24 07:03:10 51°18.63 2°53.32 -999 5.065579 34.277924 -0.814958
2003-06-24 07:03:14 51°18.64 2°53.34 -999 5.065579 34.278444 -0.74754
2003-06-24 07:03:20 51°18.65 2°53.38 -999 5.065579 34.278444 -0.814958
2003-06-24 07:03:30 51°18.66 2°53.44 -999 5.065579 34.278444 -0.781249
2003-06-24 07:03:36 51°18.67 2°53.47 -999 5.065579 34.279484 -0.814958
2003-06-24 07:03:40 51°18.68 2°53.49 -999 5.065368 34.277359 -0.781249
2003-06-24 07:03:44 51°18.69 2°53.52 -999 5.065579 34.278964 -0.814958
2003-06-24 07:03:50 51°18.7 2°53.55 -999 5.065685 34.279766 -0.814958
2003-06-24 07:03:56 51°18.71 2°53.59 -999 5.065579 34.279484 -0.781249
2003-06-24 07:04:00 51°18.72 2°53.61 -999 5.065579 34.279484 -0.781249
2003-06-24 07:04:04 51°18.72 2°53.63 -999 5.065474 34.278681 -0.781249
2003-06-24 07:04:10 51°18.73 2°53.67 -999 5.065474 34.278681 -0.781249
2003-06-24 07:04:14 51°18.74 2°53.69 -999 5.065368 34.277879 -0.781249
2003-06-24 07:04:20 51°18.75 2°53.73 -999 5.065262 34.277077 -0.814958
2003-06-24 07:04:30 51°18.77 2°53.79 -999 5.065474 34.279722 -0.781249
2003-06-24 07:04:36 51°18.78 2°53.82 -999 5.065474 34.279722 -0.781249
2003-06-24 07:04:40 51°18.79 2°53.84 -999 5.065368 34.278399 -0.814958
2003-06-24 07:04:44 51°18.79 2°53.87 -999 5.065368 34.279439 -0.781249
2003-06-24 07:04:50 51°18.8 2°53.9 -999 5.065474 34.280242 -0.781249
2003-06-24 07:04:56 51°18.81 2°53.94 -999 5.065263 34.279157 -0.781249
2003-06-24 07:05:00 51°18.82 2°53.96 -999 5.065263 34.279157 -0.781249
2003-06-24 07:05:04 51°18.83 2°53.98 -999 5.065368 34.279439 -0.781249
2003-06-24 07:05:10 51°18.84 2°54.02 -999 5.065157 34.278875 -0.814958
2003-06-24 07:05:16 51°18.85 2°54.06 -999 5.065263 34.279677 -0.814958
2003-06-24 07:05:20 51°18.85 2°54.08 -999 5.065263 34.279677 -0.814958
2003-06-24 07:05:24 51°18.86 2°54.1 -999 5.065263 34.279157 -0.814958
2003-06-24 07:05:30 51°18.87 2°54.14 -999 5.065263 34.279157 -0.814958
2003-06-24 07:05:34 51°18.88 2°54.16 -999 5.065263 34.279677 -0.781249
2003-06-24 07:05:40 51°18.89 2°54.2 -999 5.065263 34.280197 -0.74754
2003-06-24 07:05:50 51°18.91 2°54.25 -999 5.065263 34.279677 -0.781249
2003-06-24 07:05:56 51°18.92 2°54.29 -999 5.065157 34.279915 -0.814958
2003-06-24 07:06:00 51°18.92 2°54.31 -999 5.065157 34.279915 -0.814958
2003-06-24 07:06:04 51°18.93 2°54.34 -999 5.065157 34.279915 -0.781249
2003-06-24 07:06:10 51°18.94 2°54.37 -999 5.064946 34.27831 -0.781249
2003-06-24 07:06:16 51°18.95 2°54.41 -999 5.065157 34.280435 -0.814958
2003-06-24 07:06:20 51°18.96 2°54.43 -999 5.065051 34.279633 -0.781249
2003-06-24 07:06:30 51°18.97 2°54.49 -999 5.065157 34.280435 -0.781249
2003-06-24 07:06:36 51°18.98 2°54.53 -999 5.064946 34.279871 -0.781249
2003-06-24 07:06:40 51°18.99 2°54.55 -999 5.064946 34.27935 -0.781249
2003-06-24 07:06:44 51°19 2°54.57 -999 5.065051 34.280153 -0.781249
2003-06-24 07:06:50 51°19.01 2°54.61 -999 5.065051 34.280153 -0.814958
2003-06-24 07:06:56 51°19.02 2°54.64 -999 5.06484 34.278548 -0.781249
2003-06-24 07:07:00 51°19.03 2°54.67 -999 5.06484 34.278548 -0.781249
2003-06-24 07:07:04 51°19.03 2°54.69 -999 5.06484 34.279068 -0.781249
2003-06-24 07:07:10 51°19.04 2°54.73 -999 5.064946 34.280391 -0.814958
2003-06-24 07:07:16 51°19.05 2°54.76 -999 5.064946 34.280391 -0.781249
2003-06-24 07:07:20 51°19.06 2°54.79 -999 5.06484 34.280108 -0.781249
2003-06-24 07:07:30 51°19.08 2°54.84 -999 5.064946 34.280391 -0.781249
2003-06-24 07:07:34 51°19.08 2°54.87 -999 5.064946 34.279871 -0.781249
2003-06-24 07:07:40 51°19.1 2°54.9 -999 5.064946 34.280911 -0.781249
2003-06-24 07:07:44 51°19.1 2°54.93 -999 5.064735 34.279306 -0.814958
2003-06-24 07:07:50 51°19.11 2°54.96 -999 5.06484 34.281149 -0.74754
2003-06-24 07:07:54 51°19.12 2°54.99 -999 5.064629 34.279024 -0.814958
2003-06-24 07:08:00 51°19.13 2°55.02 -999 5.064629 34.279024 -0.814958
2003-06-24 07:08:10 51°19.15 2°55.08 -999 5.064629 34.279024 -0.781249
2003-06-24 07:08:12 51°19.15 2°55.09 -999 5.064629 34.279544 -0.781249
2003-06-24 07:08:20 51°19.17 2°55.14 -999 5.064735 34.280346 -0.74754
2003-06-24 07:08:24 51°19.17 2°55.16 -999 5.064735 34.281387 -0.814958
2003-06-24 07:08:30 51°19.18 2°55.2 -999 5.064735 34.281387 -0.814958
2003-06-24 07:08:36 51°19.19 2°55.24 -999 5.064735 34.280867 -0.781249
2003-06-24 07:08:40 51°19.2 2°55.26 -999 5.064524 34.278741 -0.814958
2003-06-24 07:08:44 51°19.21 2°55.28 -999 5.064418 34.278459 -0.74754
2003-06-24 07:08:50 51°19.22 2°55.32 -999 5.064735 34.281387 -0.814958
2003-06-24 07:08:56 51°19.23 2°55.35 -999 5.064524 34.279782 -0.781249
2003-06-24 07:09:00 51°19.23 2°55.38 -999 5.064524 34.279782 -0.781249
2003-06-24 07:09:10 51°19.25 2°55.44 -999 5.064735 34.281907 -0.781249
2003-06-24 07:09:14 51°19.26 2°55.46 -999 5.064524 34.280302 -0.781249
2003-06-24 07:09:20 51°19.27 2°55.5 -999 5.064629 34.281625 -0.781249
2003-06-24 07:09:24 51°19.28 2°55.52 -999 5.064418 34.28002 -0.781249
2003-06-24 07:09:30 51°19.29 2°55.56 -999 5.064418 34.28002 -0.781249
2003-06-24 07:09:36 51°19.3 2°55.59 -999 5.064629 34.281105 -0.814958
2003-06-24 07:09:40 51°19.3 2°55.62 -999 5.064524 34.280822 -0.781249
2003-06-24 07:09:50 51°19.32 2°55.68 -999 5.064418 34.28002 -0.781249
2003-06-24 07:09:56 51°19.33 2°55.71 -999 5.064524 34.281343 -0.781249
2003-06-24 07:10:00 51°19.34 2°55.73 -999 5.064524 34.281343 -0.781249
2003-06-24 07:10:04 51°19.35 2°55.76 -999 5.064418 34.28106 -0.814958
2003-06-24 07:10:10 51°19.36 2°55.79 -999 5.064418 34.28106 -0.781249
2003-06-24 07:10:14 51°19.36 2°55.82 -999 5.064418 34.281581 -0.781249
2003-06-24 07:10:20 51°19.37 2°55.85 -999 5.064313 34.279737 -0.781249
2003-06-24 07:10:24 51°19.38 2°55.88 -999 5.064418 34.282101 -0.781249
2003-06-24 07:10:30 51°19.39 2°55.91 -999 5.064418 34.282101 -0.781249
2003-06-24 07:10:36 51°19.4 2°55.95 -999 5.064418 34.281581 -0.781249
2003-06-24 07:10:40 51°19.41 2°55.97 -999 5.064418 34.28106 -0.814958
2003-06-24 07:10:44 51°19.42 2°56 -999 5.064207 34.280496 -0.781249
2003-06-24 07:10:50 51°19.43 2°56.03 -999 5.064207 34.280496 -0.781249
2003-06-24 07:10:56 51°19.44 2°56.07 -999 5.064207 34.279975 -0.781249
2003-06-24 07:11:00 51°19.44 2°56.09 -999 5.064207 34.279975 -0.781249
2003-06-24 07:11:04 51°19.45 2°56.12 -999 5.064207 34.281536 -0.814958
2003-06-24 07:11:10 51°19.46 2°56.15 -999 5.064313 34.281819 -0.814958
2003-06-24 07:11:14 51°19.47 2°56.17 -999 5.064313 34.281819 -0.781249
2003-06-24 07:11:20 51°19.48 2°56.21 -999 5.064313 34.282339 -0.814958
2003-06-24 07:11:30 51°19.5 2°56.27 -999 5.064207 34.281536 -0.814958
2003-06-24 07:11:36 51°19.51 2°56.31 -999 5.063996 34.279931 -0.781249
2003-06-24 07:11:40 51°19.51 2°56.33 -999 5.064207 34.281016 -0.74754
2003-06-24 07:11:44 51°19.52 2°56.35 -999 5.064313 34.282859 -0.781249
2003-06-24 07:11:50 51°19.53 2°56.39 -999 5.064313 34.282859 -0.781249
2003-06-24 07:11:56 51°19.54 2°56.42 -999 5.064102 34.281254 -0.781249
2003-06-24 07:12:00 51°19.55 2°56.45 -999 5.064102 34.281254 -0.781249
2003-06-24 07:12:10 51°19.56 2°56.51 -999 5.064102 34.282295 -0.74754
2003-06-24 07:12:16 51°19.58 2°56.54 -999 5.063996 34.280972 -0.814958
2003-06-24 07:12:20 51°19.58 2°56.57 -999 5.064102 34.282295 -0.781249
2003-06-24 07:12:24 51°19.59 2°56.59 -999 5.064102 34.281774 -0.781249
2003-06-24 07:12:30 51°19.6 2°56.63 -999 5.064102 34.281774 -0.781249
2003-06-24 07:12:36 51°19.61 2°56.66 -999 5.063996 34.281492 -0.781249
2003-06-24 07:12:40 51°19.62 2°56.69 -999 5.06389 34.28121 -0.814958
2003-06-24 07:12:50 51°19.63 2°56.75 -999 5.064102 34.282815 -0.814958
2003-06-24 07:12:54 51°19.64 2°56.77 -999 5.06389 34.28173 -0.74754
2003-06-24 07:13:00 51°19.65 2°56.81 -999 5.06389 34.28173 -0.74754
2003-06-24 07:13:10 51°19.67 2°56.87 -999 5.064102 34.283336 -0.781249
2003-06-24 07:13:16 51°19.68 2°56.9 -999 5.063785 34.281448 -0.781249
2003-06-24 07:13:20 51°19.69 2°56.93 -999 5.063996 34.283053 -0.781249
2003-06-24 07:13:24 51°19.69 2°56.95 -999 5.06389 34.282251 -0.781249
2003-06-24 07:13:30 51°19.7 2°56.99 -999 5.06389 34.282251 -0.781249
2003-06-24 07:13:36 51°19.71 2°57.02 -999 5.063785 34.281448 -0.781249
2003-06-24 07:13:40 51°19.72 2°57.04 -999 5.063785 34.281968 -0.781249
2003-06-24 07:13:50 51°19.74 2°57.1 -999 5.06389 34.282251 -0.814958
2003-06-24 07:13:54 51°19.75 2°57.13 -999 5.063679 34.281166 -0.781249
2003-06-24 07:14:00 51°19.76 2°57.16 -999 5.063679 34.281166 -0.781249
2003-06-24 07:14:04 51°19.76 2°57.19 -999 5.063891 34.283291 -0.814958
2003-06-24 07:14:10 51°19.77 2°57.22 -999 5.063785 34.282489 -0.814958
2003-06-24 07:14:16 51°19.78 2°57.26 -999 5.063785 34.282489 -0.781249
2003-06-24 07:14:20 51°19.79 2°57.28 -999 5.063785 34.282489 -0.814958
2003-06-24 07:14:30 51°19.81 2°57.34 -999 5.063679 34.282206 -0.74754
2003-06-24 07:14:36 51°19.82 2°57.38 -999 5.063679 34.282206 -0.781249
2003-06-24 07:14:40 51°19.83 2°57.4 -999 5.063679 34.282727 -0.781249
2003-06-24 07:14:44 51°19.83 2°57.43 -999 5.063679 34.283247 -0.781249
2003-06-24 07:14:50 51°19.84 2°57.46 -999 5.063679 34.282206 -0.781249
2003-06-24 07:14:54 51°19.85 2°57.48 -999 5.063574 34.282445 -0.814958
2003-06-24 07:15:00 51°19.86 2°57.52 -999 5.063574 34.282445 -0.814958
2003-06-24 07:15:04 51°19.87 2°57.54 -999 5.063679 34.283247 -0.781249
2003-06-24 07:15:10 51°19.88 2°57.58 -999 5.063574 34.282445 -0.781249
2003-06-24 07:15:16 51°19.89 2°57.62 -999 5.063574 34.282965 -0.74754
2003-06-24 07:15:20 51°19.89 2°57.64 -999 5.063574 34.282965 -0.781249
2003-06-24 07:15:30 51°19.91 2°57.7 -999 5.063574 34.283486 -0.781249
2003-06-24 07:15:36 51°19.92 2°57.73 -999 5.063363 34.28188 -0.781249
2003-06-24 07:15:40 51°19.93 2°57.76 -999 5.063679 34.283768 -0.814958
2003-06-24 07:15:44 51°19.94 2°57.78 -999 5.063574 34.283486 -0.814958
2003-06-24 07:15:50 51°19.95 2°57.82 -999 5.063574 34.283486 -0.781249
2003-06-24 07:15:54 51°19.95 2°57.84 -999 5.063574 34.283486 -0.781249
2003-06-24 07:16:00 51°19.96 2°57.88 -999 5.063574 34.283486 -0.781249
2003-06-24 07:16:10 51°19.98 2°57.94 -999 5.063363 34.282921 -0.781249
2003-06-24 07:16:16 51°19.99 2°57.98 -999 5.063468 34.283724 -0.814958
2003-06-24 07:16:20 51°19.99 2°58 -999 5.063363 34.2824 -0.781249
2003-06-24 07:16:24 51°20 2°58.02 -999 5.063574 34.284527 -0.74754
2003-06-24 07:16:30 51°20.01 2°58.06 -999 5.063574 34.284527 -0.74754
2003-06-24 07:16:36 51°20.02 2°58.1 -999 5.063363 34.283441 -0.781249
2003-06-24 07:16:40 51°20.03 2°58.12 -999 5.063468 34.284244 -0.814958
2003-06-24 07:16:50 51°20.04 2°58.18 -999 5.063257 34.282639 -0.814958
2003-06-24 07:16:54 51°20.05 2°58.21 -999 5.063257 34.282639 -0.781249
2003-06-24 07:17:00 51°20.06 2°58.24 -999 5.063257 34.282639 -0.781249
2003-06-24 07:17:04 51°20.06 2°58.27 -999 5.063468 34.283724 -0.781249
2003-06-24 07:17:10 51°20.07 2°58.3 -999 5.063257 34.283159 -0.814958
2003-06-24 07:17:16 51°20.08 2°58.34 -999 5.063152 34.282356 -0.781249
2003-06-24 07:17:20 51°20.09 2°58.37 -999 5.063363 34.283962 -0.781249
2003-06-24 07:17:24 51°20.1 2°58.39 -999 5.063257 34.28368 -0.74754
2003-06-24 07:17:30 51°20.11 2°58.43 -999 5.063257 34.28368 -0.74754
2003-06-24 07:17:36 51°20.12 2°58.46 -999 5.063257 34.28368 -0.781249
2003-06-24 07:17:40 51°20.12 2°58.49 -999 5.063152 34.283397 -0.74754
2003-06-24 07:17:44 51°20.13 2°58.51 -999 5.063257 34.2842 -0.814958
2003-06-24 07:17:50 51°20.14 2°58.55 -999 5.063257 34.2842 -0.781249
2003-06-24 07:17:56 51°20.15 2°58.58 -999 5.063152 34.283397 -0.781249
2003-06-24 07:18:00 51°20.15 2°58.61 -999 5.063152 34.283397 -0.781249
2003-06-24 07:18:04 51°20.16 2°58.63 -999 5.063152 34.282877 -0.814958
2003-06-24 07:18:10 51°20.17 2°58.67 -999 5.063257 34.2842 -0.781249
2003-06-24 07:18:14 51°20.18 2°58.69 -999 5.063046 34.283115 -0.781249
2003-06-24 07:18:20 51°20.19 2°58.73 -999 5.063152 34.283918 -0.781249
2003-06-24 07:18:30 51°20.2 2°58.79 -999 5.063046 34.283636 -0.781249
2003-06-24 07:18:36 51°20.21 2°58.83 -999 5.063152 34.283918 -0.781249
2003-06-24 07:18:40 51°20.22 2°58.85 -999 5.063046 34.283636 -0.781249
2003-06-24 07:18:44 51°20.22 2°58.88 -999 5.063046 34.283636 -0.781249
2003-06-24 07:18:50 51°20.23 2°58.91 -999 5.063046 34.283636 -0.781249
2003-06-24 07:18:56 51°20.24 2°58.95 -999 5.062941 34.282312 -0.781249
2003-06-24 07:19:00 51°20.25 2°58.97 -999 5.062941 34.282312 -0.781249
2003-06-24 07:19:10 51°20.26 2°59.04 -999 5.063046 34.284677 -0.781249
2003-06-24 07:19:16 51°20.27 2°59.07 -999 5.063046 34.284677 -0.814958
2003-06-24 07:19:20 51°20.28 2°59.1 -999 5.062941 34.283874 -0.781249
2003-06-24 07:19:30 51°20.29 2°59.16 -999 5.063046 34.284156 -0.74754
2003-06-24 07:19:36 51°20.3 2°59.2 -999 5.062941 34.283874 -0.781249
2003-06-24 07:19:40 51°20.31 2°59.22 -999 5.062941 34.284395 -0.781249
2003-06-24 07:19:44 51°20.31 2°59.25 -999 5.062941 34.283874 -0.814958
2003-06-24 07:19:50 51°20.32 2°59.28 -999 5.062941 34.284395 -0.781249
2003-06-24 07:19:56 51°20.33 2°59.32 -999 5.062941 34.283874 -0.814958
2003-06-24 07:20:00 51°20.34 2°59.34 -999 5.062941 34.283874 -0.814958
2003-06-24 07:20:10 51°20.35 2°59.4 -999 5.062941 34.284915 -0.74754
2003-06-24 07:20:14 51°20.36 2°59.43 -999 5.062941 34.284915 -0.781249
2003-06-24 07:20:20 51°20.37 2°59.47 -999 5.062835 34.284112 -0.781249
2003-06-24 07:20:24 51°20.37 2°59.49 -999 5.062941 34.284395 -0.781249
2003-06-24 07:20:30 51°20.38 2°59.53 -999 5.062941 34.284395 -0.781249
2003-06-24 07:20:36 51°20.39 2°59.56 -999 5.062835 34.284112 -0.781249
2003-06-24 07:20:40 51°20.39 2°59.59 -999 5.06273 34.28383 -0.781249
2003-06-24 07:20:50 51°20.41 2°59.65 -999 5.062835 34.284112 -0.74754
2003-06-24 07:20:56 51°20.42 2°59.69 -999 5.06273 34.284351 -0.781249
2003-06-24 07:21:00 51°20.42 2°59.71 -999 5.06273 34.284351 -0.781249
2003-06-24 07:21:04 51°20.43 2°59.74 -999 5.06273 34.284351 -0.781249
2003-06-24 07:21:10 51°20.44 2°59.77 -999 5.062835 34.284633 -0.781249
2003-06-24 07:21:14 51°20.44 2°59.8 -999 5.062518 34.282745 -0.814958
2003-06-24 07:21:20 51°20.45 2°59.84 -999 5.06273 34.284351 -0.814958
2003-06-24 07:21:30 51°20.47 2°59.9 -999 5.06273 34.284351 -0.781249
2003-06-24 07:21:36 51°20.48 2°59.93 -999 5.062835 34.285674 -0.814958
2003-06-24 07:21:40 51°20.48 2°59.96 -999 5.062624 34.284068 -0.74754
2003-06-24 07:21:44 51°20.49 2°59.98 -999 5.062624 34.284068 -0.814958
2003-06-24 07:21:50 51°20.5 3°0.02 -999 5.06273 34.284871 -0.781249
2003-06-24 07:21:56 51°20.51 3°0.06 -999 5.06273 34.285392 -0.781249
2003-06-24 07:22:00 51°20.51 3°0.08 -999 5.06273 34.285392 -0.781249
2003-06-24 07:22:04 51°20.52 3°0.11 -999 5.062624 34.284068 -0.781249
2003-06-24 07:22:10 51°20.53 3°0.14 -999 5.062518 34.283786 -0.781249
2003-06-24 07:22:14 51°20.53 3°0.17 -999 5.06273 34.285392 -0.781249
2003-06-24 07:22:20 51°20.54 3°0.21 -999 5.062518 34.284307 -0.814958
2003-06-24 07:22:30 51°20.56 3°0.27 -999 5.062518 34.284827 -0.814958
2003-06-24 07:22:36 51°20.56 3°0.3 -999 5.062624 34.28563 -0.814958
2003-06-24 07:22:40 51°20.57 3°0.33 -999 5.062624 34.28563 -0.781249
2003-06-24 07:22:44 51°20.58 3°0.35 -999 5.062518 34.284307 -0.781249
2003-06-24 07:22:50 51°20.58 3°0.39 -999 5.062413 34.284024 -0.781249
2003-06-24 07:22:56 51°20.59 3°0.43 -999 5.062413 34.284024 -0.74754
2003-06-24 07:23:00 51°20.6 3°0.45 -999 5.062413 34.284024 -0.74754
2003-06-24 07:23:10 51°20.61 3°0.51 -999 5.062518 34.285348 -0.781249
2003-06-24 07:23:14 51°20.62 3°0.54 -999 5.062413 34.285066 -0.781249
2003-06-24 07:23:20 51°20.63 3°0.58 -999 5.062518 34.28639 -0.74754
2003-06-24 07:23:24 51°20.64 3°0.6 -999 5.062413 34.285066 -0.74754
2003-06-24 07:23:30 51°20.64 3°0.64 -999 5.062413 34.285066 -0.74754
2003-06-24 07:23:36 51°20.65 3°0.67 -999 5.062413 34.284545 -0.781249
2003-06-24 07:23:40 51°20.66 3°0.7 -999 5.062307 34.283742 -0.781249
2003-06-24 07:23:50 51°20.67 3°0.76 -999 5.062202 34.28346 -0.781249
2003-06-24 07:23:56 51°20.68 3°0.8 -999 5.062307 34.284263 -0.814958
2003-06-24 07:24:00 51°20.69 3°0.82 -999 5.062307 34.284263 -0.814958
2003-06-24 07:24:10 51°20.7 3°0.88 -999 5.062518 34.28639 -0.74754
2003-06-24 07:24:16 51°20.71 3°0.92 -999 5.062518 34.285869 -0.781249
2003-06-24 07:24:20 51°20.72 3°0.95 -999 5.062413 34.286107 -0.781249
2003-06-24 07:24:24 51°20.72 3°0.97 -999 5.062413 34.285587 -0.781249
2003-06-24 07:24:30 51°20.73 3°1.01 -999 5.062413 34.285587 -0.781249
2003-06-24 07:24:36 51°20.74 3°1.05 -999 5.062413 34.286107 -0.74754
2003-06-24 07:24:40 51°20.75 3°1.07 -999 5.062413 34.285587 -0.781249
2003-06-24 07:24:50 51°20.76 3°1.13 -999 5.062202 34.285022 -0.781249
2003-06-24 07:24:56 51°20.77 3°1.17 -999 5.062202 34.285543 -0.781249
2003-06-24 07:25:00 51°20.78 3°1.19 -999 5.062202 34.285543 -0.781249
2003-06-24 07:25:04 51°20.78 3°1.22 -999 5.062307 34.285825 -0.814958
2003-06-24 07:25:10 51°20.79 3°1.26 -999 5.062202 34.285022 -0.814958
2003-06-24 07:25:16 51°20.8 3°1.29 -999 5.062307 34.286867 -0.781249
2003-06-24 07:25:20 51°20.81 3°1.32 -999 5.062413 34.286628 -0.781249
2003-06-24 07:25:30 51°20.82 3°1.38 -999 5.062202 34.285543 -0.781249
2003-06-24 07:25:36 51°20.83 3°1.42 -999 5.062307 34.286867 -0.781249
2003-06-24 07:25:40 51°20.84 3°1.44 -999 5.062307 34.286346 -0.781249
2003-06-24 07:25:44 51°20.84 3°1.46 -999 5.062202 34.286064 -0.781249
2003-06-24 07:25:50 51°20.85 3°1.5 -999 5.062202 34.285543 -0.781249
2003-06-24 07:25:54 51°20.86 3°1.53 -999 5.062202 34.286584 -0.781249
2003-06-24 07:26:00 51°20.87 3°1.56 -999 5.062202 34.286584 -0.781249
2003-06-24 07:26:04 51°20.87 3°1.59 -999 5.062307 34.286867 -0.814958
2003-06-24 07:26:10 51°20.88 3°1.63 -999 5.062307 34.286867 -0.814958
2003-06-24 07:26:16 51°20.89 3°1.66 -999 5.062096 34.285781 -0.814958
2003-06-24 07:26:20 51°20.89 3°1.69 -999 5.062202 34.286584 -0.781249
2003-06-24 07:26:30 51°20.91 3°1.75 -999 5.061991 34.285499 -0.781249
2003-06-24 07:26:36 51°20.92 3°1.79 -999 5.061991 34.285499 -0.781249
2003-06-24 07:26:40 51°20.92 3°1.81 -999 5.062096 34.285781 -0.814958
2003-06-24 07:26:44 51°20.93 3°1.84 -999 5.061991 34.285499 -0.74754
2003-06-24 07:26:50 51°20.94 3°1.87 -999 5.061991 34.285499 -0.781249
2003-06-24 07:26:54 51°20.95 3°1.9 -999 5.061991 34.28602 -0.781249
2003-06-24 07:27:00 51°20.95 3°1.93 -999 5.061991 34.28602 -0.781249
2003-06-24 07:27:10 51°20.97 3°2 -999 5.062096 34.286823 -0.781249
2003-06-24 07:27:16 51°20.98 3°2.03 -999 5.062096 34.286302 -0.781249
2003-06-24 07:27:20 51°20.98 3°2.06 -999 5.062202 34.287626 -0.814958
2003-06-24 07:27:24 51°20.99 3°2.08 -999 5.062096 34.287344 -0.781249
2003-06-24 07:27:30 51°21 3°2.12 -999 5.062096 34.287344 -0.781249
2003-06-24 07:27:36 51°21.01 3°2.16 -999 5.061991 34.286541 -0.814958
2003-06-24 07:27:40 51°21.01 3°2.18 -999 5.061991 34.287062 -0.814958
2003-06-24 07:27:50 51°21.03 3°2.24 -999 5.061885 34.285738 -0.814958
2003-06-24 07:27:56 51°21.04 3°2.28 -999 5.061991 34.286541 -0.781249
2003-06-24 07:28:00 51°21.04 3°2.31 -999 5.061991 34.286541 -0.781249
2003-06-24 07:28:04 51°21.05 3°2.33 -999 5.061991 34.287062 -0.781249
2003-06-24 07:28:10 51°21.06 3°2.37 -999 5.062096 34.288386 -0.781249
2003-06-24 07:28:16 51°21.07 3°2.41 -999 5.061991 34.287062 -0.781249
2003-06-24 07:28:20 51°21.08 3°2.43 -999 5.061885 34.286258 -0.814958
2003-06-24 07:28:24 51°21.08 3°2.46 -999 5.061885 34.286258 -0.781249
2003-06-24 07:28:30 51°21.09 3°2.49 -999 5.061885 34.286258 -0.781249
2003-06-24 07:28:36 51°21.1 3°2.53 -999 5.061991 34.287582 -0.74754
2003-06-24 07:28:40 51°21.11 3°2.55 -999 5.061991 34.288103 -0.781249
2003-06-24 07:28:44 51°21.11 3°2.58 -999 5.061885 34.2873 -0.814958
2003-06-24 07:28:50 51°21.12 3°2.62 -999 5.061885 34.286779 -0.781249
2003-06-24 07:28:56 51°21.13 3°2.65 -999 5.061991 34.287582 -0.781249
2003-06-24 07:29:00 51°21.13 3°2.68 -999 5.061991 34.287582 -0.781249
2003-06-24 07:29:04 51°21.14 3°2.7 -999 5.061991 34.287062 -0.781249
2003-06-24 07:29:10 51°21.15 3°2.74 -999 5.06178 34.286497 -0.814958
2003-06-24 07:29:14 51°21.16 3°2.77 -999 5.061674 34.286215 -0.814958
2003-06-24 07:29:20 51°21.16 3°2.8 -999 5.061885 34.288342 -0.781249
2003-06-24 07:29:30 51°21.18 3°2.87 -999 5.06178 34.287018 -0.781249
2003-06-24 07:29:36 51°21.19 3°2.9 -999 5.061674 34.286736 -0.814958
2003-06-24 07:29:40 51°21.19 3°2.93 -999 5.061674 34.286215 -0.781249
2003-06-24 07:29:44 51°21.2 3°2.95 -999 5.06178 34.287018 -0.74754
2003-06-24 07:29:50 51°21.21 3°2.99 -999 5.061674 34.285694 -0.74754
2003-06-24 07:29:56 51°21.22 3°3.03 -999 5.061569 34.285932 -0.781249
2003-06-24 07:30:00 51°21.22 3°3.05 -999 5.061569 34.285932 -0.781249
2003-06-24 07:30:10 51°21.24 3°3.12 -999 5.06178 34.287539 -0.781249
2003-06-24 07:30:16 51°21.24 3°3.15 -999 5.06178 34.287539 -0.74754
2003-06-24 07:30:20 51°21.25 3°3.18 -999 5.06178 34.28806 -0.781249
2003-06-24 07:30:24 51°21.25 3°3.21 -999 5.061569 34.286453 -0.814958
2003-06-24 07:30:30 51°21.26 3°3.24 -999 5.061569 34.286453 -0.814958
2003-06-24 07:30:36 51°21.27 3°3.28 -999 5.061674 34.287777 -0.781249
2003-06-24 07:30:40 51°21.27 3°3.31 -999 5.06178 34.288581 -0.781249
2003-06-24 07:30:44 51°21.28 3°3.33 -999 5.061674 34.287777 -0.781249
2003-06-24 07:30:50 51°21.29 3°3.37 -999 5.061569 34.286974 -0.781249
2003-06-24 07:30:56 51°21.29 3°3.41 -999 5.061674 34.287256 -0.781249
2003-06-24 07:31:00 51°21.3 3°3.44 -999 5.061674 34.287256 -0.781249
2003-06-24 07:31:10 51°21.31 3°3.5 -999 5.061463 34.286692 -0.781249
2003-06-24 07:31:16 51°21.32 3°3.54 -999 5.061674 34.288298 -0.781249
2003-06-24 07:31:20 51°21.32 3°3.56 -999 5.061674 34.288819 -0.74754
2003-06-24 07:31:24 51°21.33 3°3.59 -999 5.061674 34.288298 -0.781249
2003-06-24 07:31:28 51°21.33 3°3.61 -999 5.061674 34.288298 -0.781249
2003-06-24 07:31:36 51°21.34 3°3.66 -999 5.061569 34.288016 -0.74754
2003-06-24 07:31:40 51°21.35 3°3.69 -999 5.061674 34.288819 -0.74754
2003-06-24 07:31:44 51°21.35 3°3.72 -999 5.061569 34.287495 -0.781249
2003-06-24 07:31:50 51°21.36 3°3.75 -999 5.061357 34.286931 -0.814958
2003-06-24 07:31:56 51°21.37 3°3.79 -999 5.061674 34.28934 -0.814958
2003-06-24 07:32:00 51°21.37 3°3.82 -999 5.061674 34.28934 -0.814958
2003-06-24 07:32:04 51°21.38 3°3.84 -999 5.061463 34.287734 -0.781249
2003-06-24 07:32:10 51°21.38 3°3.88 -999 5.061569 34.288016 -0.781249
2003-06-24 07:32:14 51°21.39 3°3.91 -999 5.061357 34.286931 -0.781249
2003-06-24 07:32:20 51°21.4 3°3.94 -999 5.061463 34.287734 -0.814958
2003-06-24 07:32:24 51°21.4 3°3.97 -999 5.061463 34.287734 -0.74754
2003-06-24 07:32:30 51°21.41 3°4.01 -999 5.061463 34.287734 -0.74754
2003-06-24 07:32:36 51°21.42 3°4.05 -999 5.061569 34.289058 -0.781249
2003-06-24 07:32:40 51°21.42 3°4.07 -999 5.061463 34.288255 -0.781249
2003-06-24 07:32:44 51°21.43 3°4.1 -999 5.061463 34.288776 -0.781249
2003-06-24 07:32:50 51°21.43 3°4.14 -999 5.061358 34.287452 -0.74754
2003-06-24 07:32:56 51°21.44 3°4.17 -999 5.061463 34.288776 -0.781249
2003-06-24 07:33:00 51°21.44 3°4.2 -999 5.061463 34.288776 -0.781249
2003-06-24 07:33:04 51°21.45 3°4.22 -999 5.061463 34.289297 -0.74754
2003-06-24 07:33:10 51°21.46 3°4.26 -999 5.061358 34.287452 -0.74754
2003-06-24 07:33:16 51°21.46 3°4.3 -999 5.061463 34.288255 -0.781249
2003-06-24 07:33:20 51°21.47 3°4.33 -999 5.061463 34.288776 -0.781249
2003-06-24 07:33:30 51°21.48 3°4.39 -999 5.061463 34.289297 -0.781249
2003-06-24 07:33:34 51°21.49 3°4.42 -999 5.061463 34.289297 -0.814958
2003-06-24 07:33:40 51°21.49 3°4.46 -999 5.061569 34.2901 -0.74754
2003-06-24 07:33:44 51°21.5 3°4.48 -999 5.061252 34.288211 -0.74754
2003-06-24 07:33:48 51°21.5 3°4.51 -999 5.061463 34.289297 -0.814958
2003-06-24 07:33:56 51°21.51 3°4.56 -999 5.061463 34.289297 -0.781249
2003-06-24 07:34:00 51°21.52 3°4.58 -999 5.061463 34.289297 -0.781249
2003-06-24 07:34:04 51°21.52 3°4.61 -999 5.061569 34.289579 -0.814958
2003-06-24 07:34:10 51°21.53 3°4.65 -999 5.061358 34.289014 -0.781249
2003-06-24 07:34:16 51°21.54 3°4.69 -999 5.061463 34.289297 -0.781249
2003-06-24 07:34:20 51°21.54 3°4.71 -999 5.061463 34.289818 -0.781249
2003-06-24 07:34:24 51°21.55 3°4.74 -999 5.061358 34.289014 -0.814958
2003-06-24 07:34:30 51°21.56 3°4.78 -999 5.061358 34.289014 -0.814958
2003-06-24 07:34:34 51°21.56 3°4.8 -999 5.061358 34.289014 -0.781249
2003-06-24 07:34:40 51°21.57 3°4.84 -999 5.061358 34.289014 -0.781249
2003-06-24 07:34:44 51°21.57 3°4.87 -999 5.061358 34.289535 -0.74754
2003-06-24 07:34:48 51°21.58 3°4.89 -999 5.061252 34.288732 -0.74754
2003-06-24 07:34:56 51°21.59 3°4.94 -999 5.061358 34.290057 -0.74754
2003-06-24 07:35:00 51°21.59 3°4.97 -999 5.061358 34.290057 -0.74754
2003-06-24 07:35:04 51°21.6 3°5 -999 5.061252 34.288732 -0.781249
2003-06-24 07:35:10 51°21.61 3°5.03 -999 5.061463 34.290339 -0.814958
2003-06-24 07:35:16 51°21.61 3°5.07 -999 5.061146 34.28845 -0.781249
2003-06-24 07:35:20 51°21.62 3°5.1 -999 5.061358 34.290578 -0.781249
2003-06-24 07:35:24 51°21.62 3°5.12 -999 5.061146 34.28845 -0.781249
2003-06-24 07:35:30 51°21.63 3°5.16 -999 5.061146 34.28845 -0.781249
2003-06-24 07:35:34 51°21.64 3°5.19 -999 5.061252 34.290295 -0.781249
2003-06-24 07:35:40 51°21.64 3°5.23 -999 5.061358 34.290578 -0.781249
2003-06-24 07:35:48 51°21.65 3°5.28 -999 5.061146 34.288971 -0.781249
2003-06-24 07:35:56 51°21.66 3°5.33 -999 5.061252 34.289774 -0.781249
2003-06-24 07:36:00 51°21.67 3°5.36 -999 5.061252 34.289774 -0.781249
2003-06-24 07:36:04 51°21.67 3°5.38 -999 5.061252 34.289253 -0.781249
2003-06-24 07:36:10 51°21.68 3°5.42 -999 5.061146 34.289492 -0.781249
2003-06-24 07:36:16 51°21.69 3°5.46 -999 5.061252 34.289774 -0.781249
2003-06-24 07:36:20 51°21.69 3°5.49 -999 5.061146 34.288971 -0.781249
2003-06-24 07:36:30 51°21.7 3°5.55 -999 5.061358 34.291099 -0.814958
2003-06-24 07:36:36 51°21.71 3°5.59 -999 5.061146 34.289492 -0.781249
2003-06-24 07:36:40 51°21.72 3°5.61 -999 5.061146 34.290013 -0.781249
2003-06-24 07:36:44 51°21.72 3°5.64 -999 5.061252 34.290816 -0.781249
2003-06-24 07:36:48 51°21.72 3°5.67 -999 5.061252 34.290295 -0.781249
2003-06-24 07:36:56 51°21.73 3°5.72 -999 5.061041 34.28921 -0.74754
2003-06-24 07:37:00 51°21.74 3°5.74 -999 5.061041 34.28921 -0.74754
2003-06-24 07:37:04 51°21.74 3°5.77 -999 5.061358 34.291099 -0.74754
2003-06-24 07:37:10 51°21.75 3°5.81 -999 5.061041 34.288689 -0.781249
2003-06-24 07:37:16 51°21.76 3°5.85 -999 5.061252 34.290816 -0.781249
2003-06-24 07:37:20 51°21.76 3°5.87 -999 5.061146 34.290013 -0.814958
2003-06-24 07:37:30 51°21.77 3°5.94 -999 5.061041 34.290252 -0.781249
2003-06-24 07:37:34 51°21.77 3°5.96 -999 5.061358 34.292141 -0.781249
2003-06-24 07:37:40 51°21.78 3°6 -999 5.060935 34.288406 -0.781249
2003-06-24 07:37:44 51°21.78 3°6.03 -999 5.061041 34.289731 -0.814958
2003-06-24 07:37:48 51°21.79 3°6.05 -999 5.061146 34.290534 -0.74754
2003-06-24 07:37:56 51°21.8 3°6.11 -999 5.061146 34.291055 -0.781249
2003-06-24 07:38:00 51°21.8 3°6.13 -999 5.061146 34.291055 -0.781249
2003-06-24 07:38:04 51°21.81 3°6.16 -999 5.061041 34.289731 -0.781249
2003-06-24 07:38:10 51°21.81 3°6.2 -999 5.061041 34.290252 -0.781249
2003-06-24 07:38:16 51°21.82 3°6.24 -999 5.061146 34.290534 -0.781249
2003-06-24 07:38:20 51°21.82 3°6.26 -999 5.061041 34.290773 -0.781249
2003-06-24 07:38:24 51°21.83 3°6.29 -999 5.061041 34.290252 -0.781249
2003-06-24 07:38:30 51°21.83 3°6.33 -999 5.061041 34.290252 -0.781249
2003-06-24 07:38:34 51°21.83 3°6.35 -999 5.060935 34.28997 -0.781249
2003-06-24 07:38:40 51°21.84 3°6.39 -999 5.061041 34.290773 -0.814958
2003-06-24 07:38:44 51°21.84 3°6.42 -999 5.061252 34.292901 -0.814958
2003-06-24 07:38:48 51°21.85 3°6.44 -999 5.061147 34.291576 -0.781249
2003-06-24 07:38:56 51°21.86 3°6.5 -999 5.061147 34.292098 -0.781249
2003-06-24 07:39:00 51°21.86 3°6.52 -999 5.061147 34.292098 -0.781249
2003-06-24 07:39:04 51°21.86 3°6.55 -999 5.060935 34.28997 -0.74754
2003-06-24 07:39:10 51°21.87 3°6.59 -999 5.061041 34.291294 -0.781249
2003-06-24 07:39:16 51°21.87 3°6.63 -999 5.061041 34.290773 -0.781249
2003-06-24 07:39:20 51°21.88 3°6.65 -999 5.060935 34.290491 -0.781249
2003-06-24 07:39:24 51°21.88 3°6.68 -999 5.06083 34.289687 -0.74754
2003-06-24 07:39:30 51°21.89 3°6.72 -999 5.06083 34.289687 -0.74754
2003-06-24 07:39:34 51°21.89 3°6.74 -999 5.061041 34.291294 -0.781249
2003-06-24 07:39:40 51°21.9 3°6.78 -999 5.060935 34.291012 -0.781249
2003-06-24 07:39:48 51°21.9 3°6.84 -999 5.061147 34.292619 -0.74754
2003-06-24 07:39:56 51°21.91 3°6.89 -999 5.060935 34.291012 -0.781249
2003-06-24 07:40:00 51°21.92 3°6.91 -999 5.060935 34.291012 -0.781249
2003-06-24 07:40:04 51°21.92 3°6.94 -999 5.060935 34.291012 -0.781249
2003-06-24 07:40:10 51°21.92 3°6.98 -999 5.061041 34.291815 -0.781249
2003-06-24 07:40:16 51°21.93 3°7.02 -999 5.060935 34.291012 -0.781249
2003-06-24 07:40:20 51°21.93 3°7.05 -999 5.061041 34.292336 -0.781249
2003-06-24 07:40:24 51°21.94 3°7.07 -999 5.061041 34.292858 -0.781249
2003-06-24 07:40:28 51°21.94 3°7.1 -999 5.061041 34.292858 -0.781249
2003-06-24 07:40:36 51°21.95 3°7.15 -999 5.061041 34.292336 -0.781249
2003-06-24 07:40:40 51°21.95 3°7.18 -999 5.060935 34.292054 -0.781249
2003-06-24 07:40:44 51°21.96 3°7.2 -999 5.06083 34.290209 -0.781249
2003-06-24 07:40:50 51°21.96 3°7.24 -999 5.060935 34.291533 -0.814958
2003-06-24 07:40:54 51°21.97 3°7.27 -999 5.06083 34.291251 -0.781249
2003-06-24 07:41:00 51°21.97 3°7.31 -999 5.06083 34.291251 -0.781249
2003-06-24 07:41:04 51°21.98 3°7.34 -999 5.061041 34.292858 -0.781249
2003-06-24 07:41:08 51°21.98 3°7.36 -999 5.06083 34.29073 -0.781249
2003-06-24 07:41:16 51°21.99 3°7.42 -999 5.06083 34.291251 -0.814958
2003-06-24 07:41:20 51°21.99 3°7.44 -999 5.060935 34.292575 -0.74754
2003-06-24 07:41:24 51°21.99 3°7.47 -999 5.06083 34.291251 -0.781249
2003-06-24 07:41:30 51°22 3°7.51 -999 5.06083 34.291251 -0.781249
2003-06-24 07:41:34 51°22 3°7.53 -999 5.060935 34.292575 -0.814958
2003-06-24 07:41:40 51°22.01 3°7.57 -999 5.06083 34.291772 -0.781249
2003-06-24 07:41:44 51°22.01 3°7.6 -999 5.06083 34.291251 -0.814958
2003-06-24 07:41:48 51°22.02 3°7.63 -999 5.060935 34.292575 -0.781249
2003-06-24 07:41:56 51°22.02 3°7.68 -999 5.061041 34.294421 -0.781249
2003-06-24 07:42:00 51°22.03 3°7.71 -999 5.061041 34.294421 -0.781249
2003-06-24 07:42:04 51°22.03 3°7.73 -999 5.060935 34.292575 -0.781249
2003-06-24 07:42:10 51°22.04 3°7.77 -999 5.06083 34.291772 -0.781249
2003-06-24 07:42:16 51°22.04 3°7.81 -999 5.06083 34.291772 -0.74754
2003-06-24 07:42:20 51°22.05 3°7.84 -999 5.060935 34.293097 -0.781249
2003-06-24 07:42:24 51°22.05 3°7.86 -999 5.060724 34.290969 -0.781249
2003-06-24 07:42:30 51°22.05 3°7.9 -999 5.060724 34.290969 -0.781249
2003-06-24 07:42:34 51°22.06 3°7.93 -999 5.06083 34.291772 -0.74754
2003-06-24 07:42:40 51°22.06 3°7.97 -999 5.060935 34.293618 -0.781249
2003-06-24 07:42:48 51°22.07 3°8.02 -999 5.060935 34.294139 -0.781249
2003-06-24 07:42:56 51°22.08 3°8.08 -999 5.06083 34.292814 -0.74754
2003-06-24 07:43:00 51°22.08 3°8.1 -999 5.06083 34.292814 -0.74754
2003-06-24 07:43:04 51°22.09 3°8.13 -999 5.060935 34.293618 -0.781249
2003-06-24 07:43:10 51°22.09 3°8.17 -999 5.06083 34.292293 -0.781249
2003-06-24 07:43:16 51°22.1 3°8.21 -999 5.060619 34.291208 -0.74754
2003-06-24 07:43:20 51°22.1 3°8.23 -999 5.060935 34.293618 -0.781249
2003-06-24 07:43:24 51°22.1 3°8.26 -999 5.060724 34.292532 -0.814958
2003-06-24 07:43:30 51°22.11 3°8.3 -999 5.060724 34.292532 -0.814958
2003-06-24 07:43:36 51°22.11 3°8.34 -999 5.06083 34.293336 -0.814958
2003-06-24 07:43:40 51°22.12 3°8.37 -999 5.060724 34.292532 -0.814958
2003-06-24 07:43:44 51°22.12 3°8.4 -999 5.06083 34.293857 -0.74754
2003-06-24 07:43:48 51°22.12 3°8.42 -999 5.060935 34.294139 -0.781249
2003-06-24 07:43:56 51°22.13 3°8.48 -999 5.060619 34.29225 -0.781249
2003-06-24 07:44:00 51°22.13 3°8.5 -999 5.060619 34.29225 -0.781249
2003-06-24 07:44:04 51°22.14 3°8.53 -999 5.060724 34.293053 -0.781249
2003-06-24 07:44:10 51°22.14 3°8.57 -999 5.06083 34.293857 -0.74754
2003-06-24 07:44:22 51°22.15 3°8.65 -999 5.060619 34.291729 -0.814958
2003-06-24 07:44:28 51°22.16 3°8.69 -999 5.060724 34.293575 -0.781249
2003-06-24 07:44:32 51°22.16 3°8.72 -999 5.06083 34.293857 -0.781249
2003-06-24 07:44:36 51°22.17 3°8.74 -999 5.060724 34.293575 -0.781249
2003-06-24 07:44:40 51°22.17 3°8.77 -999 5.060724 34.293575 -0.781249
2003-06-24 07:44:44 51°22.17 3°8.8 -999 5.06083 34.293857 -0.781249
2003-06-24 07:44:52 51°22.18 3°8.85 -999 5.060724 34.293575 -0.781249
2003-06-24 07:44:56 51°22.18 3°8.88 -999 5.06083 34.294378 -0.781249
2003-06-24 07:45:00 51°22.19 3°8.91 -999 5.060724 34.293575 -0.781249
2003-06-24 07:45:10 51°22.2 3°8.97 -999 5.06083 34.294899 -0.814958
2003-06-24 07:45:16 51°22.2 3°9.01 -999 5.060619 34.292771 -0.814958
2003-06-24 07:45:20 51°22.2 3°9.04 -999 5.06083 34.294899 -0.781249
2003-06-24 07:45:24 51°22.21 3°9.07 -999 5.060619 34.292771 -0.781249
2003-06-24 07:45:30 51°22.21 3°9.11 -999 5.060619 34.292771 -0.781249
2003-06-24 07:45:36 51°22.22 3°9.15 -999 5.060619 34.293814 -0.781249
2003-06-24 07:45:40 51°22.22 3°9.17 -999 5.060619 34.293292 -0.781249
2003-06-24 07:45:44 51°22.23 3°9.2 -999 5.060724 34.294096 -0.781249
2003-06-24 07:45:50 51°22.23 3°9.24 -999 5.060724 34.293575 -0.781249
2003-06-24 07:45:56 51°22.24 3°9.28 -999 5.06083 34.294378 -0.814958
2003-06-24 07:46:00 51°22.24 3°9.31 -999 5.06083 34.294378 -0.814958
2003-06-24 07:46:04 51°22.24 3°9.33 -999 5.06083 34.294378 -0.814958
2003-06-24 07:46:10 51°22.25 3°9.37 -999 5.060724 34.294096 -0.781249
2003-06-24 07:46:14 51°22.25 3°9.4 -999 5.060724 34.294096 -0.781249
2003-06-24 07:46:20 51°22.26 3°9.44 -999 5.06083 34.294899 -0.814958
2003-06-24 07:46:24 51°22.26 3°9.47 -999 5.060724 34.294617 -0.814958
2003-06-24 07:46:28 51°22.26 3°9.49 -999 5.060724 34.294617 -0.814958
2003-06-24 07:46:36 51°22.27 3°9.55 -999 5.060724 34.294617 -0.781249
2003-06-24 07:46:40 51°22.27 3°9.57 -999 5.060724 34.294096 -0.781249
2003-06-24 07:46:44 51°22.28 3°9.6 -999 5.060619 34.294335 -0.781249
2003-06-24 07:46:50 51°22.28 3°9.64 -999 5.060724 34.294096 -0.74754
2003-06-24 07:46:56 51°22.29 3°9.68 -999 5.060724 34.295139 -0.781249
2003-06-24 07:47:00 51°22.29 3°9.71 -999 5.060724 34.295139 -0.781249
2003-06-24 07:47:04 51°22.29 3°9.74 -999 5.060619 34.294335 -0.781249
2003-06-24 07:47:10 51°22.3 3°9.78 -999 5.06083 34.295421 -0.781249
2003-06-24 07:47:14 51°22.3 3°9.8 -999 5.06083 34.295421 -0.74754
2003-06-24 07:47:20 51°22.31 3°9.84 -999 5.060619 34.294335 -0.781249
2003-06-24 07:47:24 51°22.31 3°9.87 -999 5.060513 34.293531 -0.781249
2003-06-24 07:47:28 51°22.32 3°9.9 -999 5.060513 34.293531 -0.781249
2003-06-24 07:47:36 51°22.32 3°9.95 -999 5.060724 34.295139 -0.781249
2003-06-24 07:47:40 51°22.32 3°9.98 -999 5.060724 34.294617 -0.781249
2003-06-24 07:47:44 51°22.33 3°10.01 -999 5.060724 34.29566 -0.781249
2003-06-24 07:47:50 51°22.33 3°10.05 -999 5.060619 34.295378 -0.781249
2003-06-24 07:47:56 51°22.34 3°10.09 -999 5.060619 34.294856 -0.781249
2003-06-24 07:48:00 51°22.34 3°10.12 -999 5.060619 34.294856 -0.781249
2003-06-24 07:48:04 51°22.35 3°10.14 -999 5.060724 34.295139 -0.74754
2003-06-24 07:48:10 51°22.35 3°10.18 -999 5.060724 34.294617 -0.781249
2003-06-24 07:48:16 51°22.36 3°10.22 -999 5.060724 34.29566 -0.781249
2003-06-24 07:48:20 51°22.36 3°10.25 -999 5.06083 34.296463 -0.781249
2003-06-24 07:48:28 51°22.37 3°10.31 -999 5.060724 34.295139 -0.781249
2003-06-24 07:48:36 51°22.37 3°10.36 -999 5.060619 34.294335 -0.781249
2003-06-24 07:48:40 51°22.38 3°10.39 -999 5.060513 34.294574 -0.74754
2003-06-24 07:48:44 51°22.38 3°10.41 -999 5.060619 34.294856 -0.781249
2003-06-24 07:48:50 51°22.38 3°10.45 -999 5.060619 34.295378 -0.781249
2003-06-24 07:48:56 51°22.39 3°10.49 -999 5.060408 34.293771 -0.74754
2003-06-24 07:49:00 51°22.39 3°10.52 -999 5.060408 34.293771 -0.74754
2003-06-24 07:49:10 51°22.4 3°10.59 -999 5.060513 34.294053 -0.781249
2003-06-24 07:49:16 51°22.41 3°10.63 -999 5.060513 34.294574 -0.781249
2003-06-24 07:49:20 51°22.41 3°10.66 -999 5.060408 34.293771 -0.781249
2003-06-24 07:49:24 51°22.41 3°10.68 -999 5.060724 34.296181 -0.781249
2003-06-24 07:49:28 51°22.42 3°10.71 -999 5.060724 34.296181 -0.781249
2003-06-24 07:49:36 51°22.42 3°10.76 -999 5.060619 34.295378 -0.74754
2003-06-24 07:49:40 51°22.43 3°10.79 -999 5.060408 34.293771 -0.781249
2003-06-24 07:49:44 51°22.43 3°10.82 -999 5.060619 34.295378 -0.781249
2003-06-24 07:49:50 51°22.44 3°10.86 -999 5.060619 34.295899 -0.781249
2003-06-24 07:49:56 51°22.44 3°10.9 -999 5.060619 34.295899 -0.781249
2003-06-24 07:50:00 51°22.44 3°10.92 -999 5.060619 34.295899 -0.781249
2003-06-24 07:50:04 51°22.45 3°10.95 -999 5.060408 34.294292 -0.814958
2003-06-24 07:50:10 51°22.45 3°10.99 -999 5.060619 34.295899 -0.781249
2003-06-24 07:50:14 51°22.46 3°11.02 -999 5.060513 34.294574 -0.781249
2003-06-24 07:50:20 51°22.46 3°11.06 -999 5.060408 34.294292 -0.781249
2003-06-24 07:50:24 51°22.46 3°11.09 -999 5.060619 34.295899 -0.814958
2003-06-24 07:50:28 51°22.47 3°11.11 -999 5.060619 34.295899 -0.814958
2003-06-24 07:50:36 51°22.47 3°11.17 -999 5.060619 34.29642 -0.781249
2003-06-24 07:50:40 51°22.48 3°11.2 -999 5.060513 34.295095 -0.781249
2003-06-24 07:50:44 51°22.48 3°11.22 -999 5.060513 34.295095 -0.814958
2003-06-24 07:50:50 51°22.48 3°11.26 -999 5.060513 34.296138 -0.781249
2003-06-24 07:50:56 51°22.49 3°11.3 -999 5.060724 34.297224 -0.781249
2003-06-24 07:51:00 51°22.49 3°11.33 -999 5.060724 34.297224 -0.781249
2003-06-24 07:51:04 51°22.5 3°11.36 -999 5.060513 34.295617 -0.781249
2003-06-24 07:51:10 51°22.5 3°11.4 -999 5.060619 34.29642 -0.74754
2003-06-24 07:51:14 51°22.51 3°11.43 -999 5.060619 34.29642 -0.781249
2003-06-24 07:51:20 51°22.51 3°11.47 -999 5.060619 34.295899 -0.781249
2003-06-24 07:51:28 51°22.52 3°11.52 -999 5.060513 34.296138 -0.781249